BAW4E KLAX-EGLL

Flight info

Callsign BAW4E
Flight time 9h 49m
Altitude 35000
Route DOTSS2 CNERY DCT BLH J169 KOFFA J65 PXR DCT ONM DCT PNH DCT KF33A DCT KK45G DCT KK51K DCT RINTE DCT KC66S DCT SYR/N0485F370 DCT CABCI DCT MIILS N691A NEEKO/M083F370 DCT 54N050W 5530N04000W 5530N03000W 55N020W DCT RESNO/N0481F370 DCT NETKI DCT BOFUM Q37 MALUD Q38 NUGRA
Aircraft A388/J-SADE2E3FGHIJ3J4J5M1RWXY/LB1D1

Departure

Time 2026-05-07 04:51
Airport Los Angeles International Airport (KLAX)

Arrival

Time 2026-05-07 14:41
Airport London Heathrow Airport (EGLL)
Time Latitude Longitude Altitude Speed Heading
2026-05-07 04:31 33.94020 -118.41078 100 ft 0 kts 83°
2026-05-07 04:38 33.94019 -118.41091 102 ft 3 kts 83°
2026-05-07 04:39 33.94016 -118.41123 98 ft 3 kts 83°
2026-05-07 04:39 33.94012 -118.41148 98 ft 3 kts 70°
2026-05-07 04:39 33.94001 -118.41168 97 ft 3 kts 37°
2026-05-07 04:39 33.93982 -118.41177 98 ft 4 kts
2026-05-07 04:40 33.93958 -118.41175 99 ft 4 kts 353°
2026-05-07 04:40 33.93934 -118.41171 101 ft 1 kts 353°
2026-05-07 04:40 33.93933 -118.41171 101 ft 1 kts 353°
2026-05-07 04:45 33.93952 -118.41174 100 ft 0 kts 353°
2026-05-07 04:45 33.94000 -118.41181 97 ft 14 kts 353°
2026-05-07 04:45 33.94107 -118.41197 101 ft 17 kts 353°
2026-05-07 04:46 33.94225 -118.41215 101 ft 18 kts 353°
2026-05-07 04:46 33.94349 -118.41233 101 ft 18 kts 353°
2026-05-07 04:46 33.94477 -118.41252 101 ft 19 kts 353°
2026-05-07 04:46 33.94603 -118.41271 101 ft 16 kts 353°
2026-05-07 04:47 33.94681 -118.41283 103 ft 0 kts 353°
2026-05-07 04:47 33.94689 -118.41284 103 ft 3 kts 353°
2026-05-07 04:47 33.94730 -118.41290 103 ft 8 kts 354°
2026-05-07 04:47 33.94786 -118.41269 107 ft 9 kts 53°
2026-05-07 04:48 33.94804 -118.41185 108 ft 13 kts 85°
2026-05-07 04:48 33.94817 -118.41049 108 ft 20 kts 83°
2026-05-07 04:48 33.94835 -118.40866 105 ft 23 kts 84°
2026-05-07 04:48 33.94857 -118.40659 105 ft 27 kts 82°
2026-05-07 04:49 33.94878 -118.40458 107 ft 20 kts 83°
2026-05-07 04:49 33.94895 -118.40287 105 ft 20 kts 83°
2026-05-07 04:49 33.94913 -118.40119 106 ft 19 kts 83°
2026-05-07 04:49 33.94930 -118.39969 105 ft 13 kts 69°
2026-05-07 04:50 33.94982 -118.39912 109 ft 7 kts
2026-05-07 04:50 33.95018 -118.39918 112 ft 4 kts 327°
2026-05-07 04:50 33.95040 -118.39974 111 ft 12 kts 269°
2026-05-07 04:50 33.95009 -118.40265 114 ft 70 kts 263°
2026-05-07 04:51 33.94923 -118.41118 113 ft 132 kts 263°
2026-05-07 04:51 33.94799 -118.42375 215 ft 161 kts 263°
2026-05-07 04:51 33.94678 -118.43709 706 ft 165 kts 263°
2026-05-07 04:51 33.94550 -118.45121 1109 ft 170 kts 263°
2026-05-07 04:52 33.94399 -118.46591 1355 ft 183 kts 263°
2026-05-07 04:52 33.94234 -118.48135 1707 ft 183 kts 265°
2026-05-07 04:52 33.94176 -118.49670 1987 ft 189 kts 269°
2026-05-07 04:52 33.94141 -118.51294 2067 ft 198 kts 266°
2026-05-07 04:53 33.94038 -118.52984 2139 ft 206 kts 265°
2026-05-07 04:53 33.93755 -118.54685 2173 ft 212 kts 244°
2026-05-07 04:53 33.92724 -118.56015 2210 ft 232 kts 210°
2026-05-07 04:53 33.91103 -118.56518 2462 ft 253 kts 180°
2026-05-07 04:54 33.89351 -118.56191 2945 ft 261 kts 166°
2026-05-07 04:54 33.87583 -118.55666 3512 ft 263 kts 170°
2026-05-07 04:54 33.85754 -118.55286 4094 ft 268 kts 171°
2026-05-07 04:54 33.83910 -118.54925 4794 ft 270 kts 171°
2026-05-07 04:55 33.82038 -118.54559 5420 ft 275 kts 171°
2026-05-07 04:55 33.80132 -118.54181 6063 ft 278 kts 170°
2026-05-07 04:55 33.78207 -118.53795 6689 ft 283 kts 170°
2026-05-07 04:55 33.76252 -118.53402 7281 ft 286 kts 169°
2026-05-07 04:56 33.74274 -118.53002 7921 ft 289 kts 169°
2026-05-07 04:56 33.72284 -118.52599 8551 ft 292 kts 167°
2026-05-07 04:56 33.70390 -118.51765 9133 ft 291 kts 142°
2026-05-07 04:56 33.69001 -118.50085 9762 ft 286 kts 117°
2026-05-07 04:57 33.68240 -118.47892 10285 ft 288 kts 105°
2026-05-07 04:57 33.67625 -118.45524 10437 ft 306 kts 104°
2026-05-07 04:57 33.66972 -118.43009 10593 ft 323 kts 105°
2026-05-07 04:57 33.66250 -118.40399 10888 ft 334 kts 106°
2026-05-07 04:58 33.65483 -118.37750 11388 ft 337 kts 107°
2026-05-07 04:58 33.64807 -118.35050 11882 ft 339 kts 99°
2026-05-07 04:58 33.64471 -118.32240 12407 ft 341 kts 91°
2026-05-07 04:58 33.64453 -118.29388 12916 ft 343 kts 87°
2026-05-07 04:59 33.64476 -118.26549 13437 ft 346 kts 87°
2026-05-07 04:59 33.64479 -118.23644 13946 ft 350 kts 88°
2026-05-07 04:59 33.64476 -118.20708 14438 ft 352 kts 88°
2026-05-07 04:59 33.64472 -118.17765 14929 ft 354 kts 88°
2026-05-07 05:00 33.64470 -118.14798 15417 ft 356 kts 88°
2026-05-07 05:00 33.64468 -118.11807 15898 ft 358 kts 88°
2026-05-07 05:00 33.64466 -118.08813 16378 ft 361 kts 88°
2026-05-07 05:00 33.64464 -118.05794 16849 ft 363 kts 88°
2026-05-07 05:01 33.64461 -118.02742 16998 ft 367 kts 88°
2026-05-07 05:01 33.64457 -117.99678 17044 ft 367 kts 88°
2026-05-07 05:01 33.64452 -117.96613 17278 ft 368 kts 88°
2026-05-07 05:01 33.64446 -117.93536 17765 ft 369 kts 88°
2026-05-07 05:02 33.64440 -117.90444 18222 ft 371 kts 88°
2026-05-07 05:02 33.64433 -117.87342 18631 ft 373 kts 88°
2026-05-07 05:02 33.64426 -117.84222 19079 ft 374 kts 88°
2026-05-07 05:02 33.64372 -117.81140 19474 ft 377 kts 92°
2026-05-07 05:03 33.64003 -117.78012 19872 ft 380 kts 100°
2026-05-07 05:03 33.63299 -117.74941 20280 ft 383 kts 105°
2026-05-07 05:03 33.62523 -117.71885 20694 ft 384 kts 104°
2026-05-07 05:03 33.61762 -117.68799 21068 ft 385 kts 104°
2026-05-07 05:04 33.61004 -117.65706 21443 ft 387 kts 103°
2026-05-07 05:04 33.60242 -117.62600 21820 ft 389 kts 104°
2026-05-07 05:04 33.59477 -117.59491 22182 ft 391 kts 104°
2026-05-07 05:04 33.58702 -117.56350 22558 ft 392 kts 104°
2026-05-07 05:05 33.57924 -117.53206 22929 ft 394 kts 104°
2026-05-07 05:05 33.57142 -117.50051 23307 ft 395 kts 104°
2026-05-07 05:05 33.56365 -117.46922 23659 ft 397 kts 104°
2026-05-07 05:05 33.55573 -117.43733 23971 ft 399 kts 104°
2026-05-07 05:06 33.54778 -117.40537 24267 ft 401 kts 104°
2026-05-07 05:06 33.53979 -117.37332 24549 ft 403 kts 104°
2026-05-07 05:06 33.53176 -117.34109 24852 ft 405 kts 104°
2026-05-07 05:06 33.52367 -117.30870 25144 ft 407 kts 104°
2026-05-07 05:07 33.51552 -117.27607 25450 ft 409 kts 104°
2026-05-07 05:07 33.50835 -117.24301 25740 ft 409 kts 98°
2026-05-07 05:07 33.50463 -117.20925 26027 ft 410 kts 91°
2026-05-07 05:07 33.50401 -117.17505 26348 ft 411 kts 88°
2026-05-07 05:08 33.50375 -117.14072 26688 ft 414 kts 89°
2026-05-07 05:08 33.50329 -117.10612 27034 ft 416 kts 89°
2026-05-07 05:08 33.50279 -117.07133 27347 ft 418 kts 89°
2026-05-07 05:08 33.50228 -117.03640 27676 ft 421 kts 89°
2026-05-07 05:09 33.50176 -117.00114 27995 ft 424 kts 89°
2026-05-07 05:09 33.50124 -116.96573 28300 ft 427 kts 89°
2026-05-07 05:09 33.50072 -116.93036 28608 ft 430 kts 89°
2026-05-07 05:09 33.50017 -116.89399 28935 ft 434 kts 89°
2026-05-07 05:10 33.49963 -116.85818 29232 ft 437 kts 89°
2026-05-07 05:10 33.49906 -116.82151 29525 ft 441 kts 89°
2026-05-07 05:10 33.49847 -116.78464 29807 ft 444 kts 89°
2026-05-07 05:10 33.49787 -116.74745 30096 ft 448 kts 89°
2026-05-07 05:11 33.49726 -116.71002 30354 ft 452 kts 89°
2026-05-07 05:11 33.49662 -116.67212 30601 ft 456 kts 89°
2026-05-07 05:11 33.49597 -116.63407 30855 ft 459 kts 89°
2026-05-07 05:11 33.49531 -116.59569 31102 ft 462 kts 89°
2026-05-07 05:12 33.49462 -116.55700 31343 ft 466 kts 89°
2026-05-07 05:12 33.49392 -116.51796 31570 ft 470 kts 89°
2026-05-07 05:12 33.49320 -116.47875 31817 ft 473 kts 89°
2026-05-07 05:12 33.49246 -116.43924 32024 ft 477 kts 89°
2026-05-07 05:13 33.49174 -116.39973 32223 ft 481 kts 89°
2026-05-07 05:13 33.49113 -116.35910 32420 ft 484 kts 89°
2026-05-07 05:13 33.49057 -116.31912 32691 ft 486 kts 89°
2026-05-07 05:13 33.49000 -116.27852 32926 ft 490 kts 90°
2026-05-07 05:14 33.48939 -116.23747 33173 ft 493 kts 90°
2026-05-07 05:14 33.48876 -116.19636 33424 ft 496 kts 90°
2026-05-07 05:14 33.48809 -116.15492 33698 ft 498 kts 90°
2026-05-07 05:14 33.48740 -116.11328 33963 ft 501 kts 90°
2026-05-07 05:15 33.48765 -116.07158 34153 ft 504 kts 85°
2026-05-07 05:15 33.49176 -116.02981 34367 ft 505 kts 78°
2026-05-07 05:15 33.49974 -115.98877 34594 ft 506 kts 72°
2026-05-07 05:15 33.51113 -115.94877 34851 ft 507 kts 69°
2026-05-07 05:16 33.52302 -115.90873 34973 ft 512 kts 69°
2026-05-07 05:16 33.53478 -115.86842 34971 ft 511 kts 70°
2026-05-07 05:16 33.55812 -115.78809 34969 ft 511 kts 70°
2026-05-07 05:17 33.58154 -115.70744 34965 ft 511 kts 70°
2026-05-07 05:17 33.60402 -115.62668 34968 ft 510 kts 75°
2026-05-07 05:18 33.61530 -115.54313 34969 ft 513 kts 86°
2026-05-07 05:18 33.61454 -115.45735 34982 ft 514 kts 91°
2026-05-07 05:19 33.61256 -115.37141 34980 ft 515 kts 91°
2026-05-07 05:19 33.61051 -115.28544 34986 ft 515 kts 91°
2026-05-07 05:20 33.60831 -115.19937 34976 ft 515 kts 91°
2026-05-07 05:20 33.60604 -115.11369 34976 ft 514 kts 91°
2026-05-07 05:21 33.60241 -114.98593 34793 ft 499 kts 88°
2026-05-07 05:21 33.60119 -114.94537 35265 ft 475 kts 88°
2026-05-07 05:22 33.60009 -114.90628 35342 ft 462 kts 88°
2026-05-07 05:22 33.59801 -114.82942 35477 ft 462 kts 88°
2026-05-07 05:22 33.59693 -114.79087 35838 ft 462 kts 88°
2026-05-07 05:23 33.59535 -114.75238 36161 ft 463 kts 91°
2026-05-07 05:23 33.59189 -114.71392 36472 ft 464 kts 92°
2026-05-07 05:23 33.58845 -114.67591 36769 ft 464 kts 92°
2026-05-07 05:23 33.58504 -114.63736 36982 ft 466 kts 92°
2026-05-07 05:24 33.58163 -114.59870 36982 ft 464 kts 92°
2026-05-07 05:24 33.57478 -114.52214 36976 ft 462 kts 92°
2026-05-07 05:25 33.56787 -114.44536 36966 ft 463 kts 92°
2026-05-07 05:25 33.56088 -114.36840 36961 ft 464 kts 92°
2026-05-07 05:26 33.55383 -114.29146 36954 ft 465 kts 92°
2026-05-07 05:26 33.54678 -114.21494 36946 ft 464 kts 92°
2026-05-07 05:27 33.53965 -114.13809 36945 ft 463 kts 92°
2026-05-07 05:27 33.53249 -114.06137 36939 ft 463 kts 93°
2026-05-07 05:28 33.52531 -113.98506 36933 ft 463 kts 93°
2026-05-07 05:28 33.51803 -113.90827 36946 ft 464 kts 93°
2026-05-07 05:29 33.51069 -113.83123 36955 ft 465 kts 93°
2026-05-07 05:29 33.50449 -113.76659 36963 ft 466 kts 94°
2026-05-07 05:30 33.49707 -113.68974 36972 ft 468 kts 94°
2026-05-07 05:30 33.48955 -113.61231 36982 ft 468 kts 94°
2026-05-07 05:31 33.48195 -113.53461 36981 ft 469 kts 94°
2026-05-07 05:31 33.47436 -113.45745 36979 ft 469 kts 94°
2026-05-07 05:32 33.46667 -113.37984 36975 ft 469 kts 94°
2026-05-07 05:32 33.46270 -113.30207 36968 ft 467 kts 89°
2026-05-07 05:33 33.46150 -113.22420 36962 ft 468 kts 89°
2026-05-07 05:33 33.46008 -113.14629 36956 ft 468 kts 89°
2026-05-07 05:34 33.45862 -113.06829 36958 ft 468 kts 89°
2026-05-07 05:34 33.45712 -112.99034 36975 ft 469 kts 89°
2026-05-07 05:35 33.45558 -112.91272 36993 ft 469 kts 90°
2026-05-07 05:35 33.45398 -112.83451 37005 ft 470 kts 90°
2026-05-07 05:36 33.45233 -112.75618 37013 ft 471 kts 90°
2026-05-07 05:36 33.45063 -112.67761 37013 ft 472 kts 90°
2026-05-07 05:37 33.44887 -112.59895 37011 ft 473 kts 90°
2026-05-07 05:37 33.44705 -112.51998 37008 ft 475 kts 90°
2026-05-07 05:38 33.44519 -112.44088 36986 ft 476 kts 90°
2026-05-07 05:38 33.44326 -112.36142 36994 ft 478 kts 90°
2026-05-07 05:39 33.44129 -112.28238 36990 ft 479 kts 91°
2026-05-07 05:39 33.43924 -112.20183 36981 ft 480 kts 91°
2026-05-07 05:40 33.43716 -112.12251 36996 ft 481 kts 91°
2026-05-07 05:40 33.43501 -112.04233 36995 ft 482 kts 91°
2026-05-07 05:41 33.43705 -111.96194 36996 ft 483 kts 82°
2026-05-07 05:41 33.45024 -111.88354 36990 ft 484 kts 76°
2026-05-07 05:42 33.46580 -111.80482 37016 ft 486 kts 77°
2026-05-07 05:42 33.48128 -111.72597 37020 ft 487 kts 77°
2026-05-07 05:43 33.49680 -111.64698 37025 ft 488 kts 77°
2026-05-07 05:43 33.51233 -111.56762 37011 ft 489 kts 77°
2026-05-07 05:44 33.52770 -111.48870 37003 ft 489 kts 77°
2026-05-07 05:44 33.54313 -111.40917 36995 ft 490 kts 77°
2026-05-07 05:45 33.55855 -111.32943 36978 ft 490 kts 77°
2026-05-07 05:45 33.57390 -111.24971 36971 ft 491 kts 77°
2026-05-07 05:46 33.58916 -111.17020 36976 ft 492 kts 77°
2026-05-07 05:46 33.60451 -111.08996 36979 ft 494 kts 77°
2026-05-07 05:47 33.61984 -111.00946 36994 ft 496 kts 77°
2026-05-07 05:47 33.63518 -110.92866 37000 ft 497 kts 77°
2026-05-07 05:48 33.65051 -110.84753 37012 ft 498 kts 77°
2026-05-07 05:48 33.66583 -110.76622 37016 ft 500 kts 77°
2026-05-07 05:49 33.68101 -110.68531 37015 ft 501 kts 77°
2026-05-07 05:49 33.69629 -110.60354 37018 ft 501 kts 78°
2026-05-07 05:50 33.71153 -110.52171 37009 ft 502 kts 78°
2026-05-07 05:50 33.72673 -110.43975 37005 ft 503 kts 78°
2026-05-07 05:51 33.74189 -110.35768 37002 ft 504 kts 78°
2026-05-07 05:51 33.75695 -110.27584 37003 ft 504 kts 78°
2026-05-07 05:52 33.77209 -110.19319 37005 ft 506 kts 78°
2026-05-07 05:52 33.78720 -110.11044 37010 ft 507 kts 78°
2026-05-07 05:53 33.80218 -110.02801 37014 ft 508 kts 78°
2026-05-07 05:53 33.81725 -109.94481 37020 ft 510 kts 78°
2026-05-07 05:54 33.83230 -109.86131 37024 ft 511 kts 78°
2026-05-07 05:54 33.84732 -109.77773 37028 ft 512 kts 78°
2026-05-07 05:55 33.86234 -109.69370 37029 ft 514 kts 78°
2026-05-07 05:55 33.87730 -109.60967 37040 ft 515 kts 78°
2026-05-07 05:56 33.89228 -109.52526 37087 ft 516 kts 79°
2026-05-07 05:56 33.90714 -109.44114 37133 ft 517 kts 79°
2026-05-07 05:57 33.92205 -109.35641 37158 ft 518 kts 79°
2026-05-07 05:57 33.93695 -109.27131 37173 ft 519 kts 79°
2026-05-07 05:58 33.95181 -109.18607 37161 ft 520 kts 79°
2026-05-07 05:58 33.96664 -109.10068 37132 ft 521 kts 79°
2026-05-07 05:59 33.98134 -109.01568 37093 ft 522 kts 79°
2026-05-07 05:59 33.99610 -108.92995 37046 ft 523 kts 79°
2026-05-07 06:00 34.01082 -108.84404 37027 ft 524 kts 79°
2026-05-07 06:00 34.02551 -108.75797 37028 ft 525 kts 79°
2026-05-07 06:01 34.04017 -108.67159 37029 ft 526 kts 79°
2026-05-07 06:01 34.05481 -108.58510 37018 ft 527 kts 79°
2026-05-07 06:02 34.06940 -108.49847 37025 ft 528 kts 79°
2026-05-07 06:02 34.08396 -108.41156 37051 ft 529 kts 79°
2026-05-07 06:03 34.09840 -108.32502 37050 ft 530 kts 79°
2026-05-07 06:03 34.11289 -108.23776 37047 ft 531 kts 80°
2026-05-07 06:04 34.12734 -108.15027 37055 ft 533 kts 79°
2026-05-07 06:04 34.14182 -108.06233 37057 ft 534 kts 80°
2026-05-07 06:05 34.15627 -107.97407 37061 ft 536 kts 80°
2026-05-07 06:05 34.17070 -107.88560 37053 ft 537 kts 80°
2026-05-07 06:06 34.18507 -107.79699 37060 ft 538 kts 80°
2026-05-07 06:06 34.19941 -107.70814 37055 ft 539 kts 80°
2026-05-07 06:07 34.21361 -107.61979 37062 ft 540 kts 80°
2026-05-07 06:07 34.22789 -107.53050 37056 ft 541 kts 80°
2026-05-07 06:08 34.24212 -107.44099 37056 ft 542 kts 80°
2026-05-07 06:08 34.25632 -107.35133 37050 ft 543 kts 80°
2026-05-07 06:09 34.27047 -107.26152 37041 ft 545 kts 81°
2026-05-07 06:09 34.28460 -107.17140 37052 ft 546 kts 81°
2026-05-07 06:10 34.29869 -107.08111 37063 ft 547 kts 81°
2026-05-07 06:10 34.31268 -106.99110 37073 ft 548 kts 81°
2026-05-07 06:11 34.32684 -106.89969 37069 ft 550 kts 81°
2026-05-07 06:11 34.34083 -106.80913 37064 ft 552 kts 80°
2026-05-07 06:12 34.35809 -106.71850 37066 ft 554 kts 77°
2026-05-07 06:12 34.37661 -106.62789 37080 ft 555 kts 77°
2026-05-07 06:13 34.39468 -106.53689 37095 ft 556 kts 77°
2026-05-07 06:13 34.41252 -106.44565 37114 ft 557 kts 77°
2026-05-07 06:14 34.43027 -106.35422 37127 ft 558 kts 78°
2026-05-07 06:14 34.44799 -106.26257 37142 ft 559 kts 78°
2026-05-07 06:15 34.46557 -106.17127 37156 ft 560 kts 78°
2026-05-07 06:15 34.48320 -106.07926 37163 ft 561 kts 78°
2026-05-07 06:16 34.50081 -105.98696 37178 ft 562 kts 78°
2026-05-07 06:16 34.51838 -105.89450 37188 ft 564 kts 78°
2026-05-07 06:17 34.53595 -105.80163 37193 ft 565 kts 78°
2026-05-07 06:17 34.55346 -105.70864 37204 ft 566 kts 78°
2026-05-07 06:18 34.57096 -105.61532 37213 ft 567 kts 78°
2026-05-07 06:18 34.58842 -105.52175 37218 ft 569 kts 78°
2026-05-07 06:19 34.60581 -105.42813 37217 ft 570 kts 78°
2026-05-07 06:19 34.62324 -105.33391 37218 ft 571 kts 78°
2026-05-07 06:20 34.64059 -105.23967 37217 ft 572 kts 78°
2026-05-07 06:20 34.65779 -105.14584 37213 ft 573 kts 78°
2026-05-07 06:21 34.67507 -105.05112 37210 ft 574 kts 78°
2026-05-07 06:21 34.68941 -104.97217 37202 ft 575 kts 78°
2026-05-07 06:22 34.70661 -104.87710 37206 ft 577 kts 78°
2026-05-07 06:22 34.73233 -104.73404 37215 ft 578 kts 78°
2026-05-07 06:23 34.74935 -104.63883 37219 ft 579 kts 78°
2026-05-07 06:23 34.76641 -104.54289 37209 ft 580 kts 78°
2026-05-07 06:24 34.78341 -104.44690 37202 ft 582 kts 78°
2026-05-07 06:24 34.80039 -104.35052 37185 ft 583 kts 78°
2026-05-07 06:25 34.81730 -104.25405 37171 ft 584 kts 78°
2026-05-07 06:25 34.83417 -104.15733 37167 ft 585 kts 78°
2026-05-07 06:26 34.85099 -104.06044 37176 ft 585 kts 78°
2026-05-07 06:26 34.86768 -103.96380 37179 ft 586 kts 78°
2026-05-07 06:27 34.88438 -103.86661 37178 ft 586 kts 78°
2026-05-07 06:27 34.90102 -103.76930 37193 ft 587 kts 78°
2026-05-07 06:28 34.91759 -103.67192 37201 ft 587 kts 78°
2026-05-07 06:28 34.93410 -103.57435 37201 ft 588 kts 78°
2026-05-07 06:29 34.95055 -103.47664 37209 ft 588 kts 78°
2026-05-07 06:29 34.96694 -103.37883 37211 ft 589 kts 78°
2026-05-07 06:30 34.98327 -103.28082 37200 ft 589 kts 78°
2026-05-07 06:30 34.99953 -103.18279 37205 ft 590 kts 79°
2026-05-07 06:31 35.01560 -103.08529 37209 ft 590 kts 79°
2026-05-07 06:31 35.03172 -102.98699 37217 ft 591 kts 79°
2026-05-07 06:32 35.04778 -102.88860 37228 ft 592 kts 79°
2026-05-07 06:32 35.06378 -102.79002 37237 ft 592 kts 79°
2026-05-07 06:33 35.07972 -102.69131 37233 ft 592 kts 79°
2026-05-07 06:33 35.09558 -102.59253 37239 ft 593 kts 79°
2026-05-07 06:34 35.11136 -102.49367 37242 ft 593 kts 79°
2026-05-07 06:34 35.12697 -102.39536 37245 ft 593 kts 79°
2026-05-07 06:35 35.14264 -102.29618 37238 ft 594 kts 80°
2026-05-07 06:35 35.15823 -102.19694 37231 ft 594 kts 80°
2026-05-07 06:36 35.17371 -102.09778 37222 ft 594 kts 80°
2026-05-07 06:36 35.18913 -101.99850 37224 ft 594 kts 80°
2026-05-07 06:37 35.20449 -101.89909 37231 ft 595 kts 80°
2026-05-07 06:37 35.21971 -101.80031 37233 ft 595 kts 80°
2026-05-07 06:38 35.23498 -101.70080 37234 ft 595 kts 80°
2026-05-07 06:38 35.25083 -101.60132 37232 ft 596 kts 79°
2026-05-07 06:39 35.26712 -101.50177 37227 ft 597 kts 79°
2026-05-07 06:39 35.28326 -101.40213 37222 ft 597 kts 80°
2026-05-07 06:40 35.29928 -101.30228 37198 ft 598 kts 80°
2026-05-07 06:40 35.31521 -101.20235 37200 ft 598 kts 80°
2026-05-07 06:41 35.33111 -101.10211 37209 ft 599 kts 80°
2026-05-07 06:41 35.34693 -101.00182 37214 ft 599 kts 80°
2026-05-07 06:42 35.36253 -100.90233 37214 ft 600 kts 80°
2026-05-07 06:42 35.37822 -100.80174 37209 ft 600 kts 81°
2026-05-07 06:43 35.39380 -100.70127 37208 ft 601 kts 81°
2026-05-07 06:43 35.40924 -100.60115 37202 ft 601 kts 81°
2026-05-07 06:44 35.42469 -100.50030 37202 ft 602 kts 81°
2026-05-07 06:44 35.44008 -100.39931 37204 ft 603 kts 81°
2026-05-07 06:45 35.45542 -100.29811 37201 ft 603 kts 81°
2026-05-07 06:45 35.47068 -100.19676 37194 ft 604 kts 81°
2026-05-07 06:46 35.48588 -100.09525 37192 ft 605 kts 81°
2026-05-07 06:46 35.50406 -99.99514 37189 ft 606 kts 71°
2026-05-07 06:47 35.53690 -99.89983 37178 ft 606 kts 64°
2026-05-07 06:47 35.57141 -99.80520 37172 ft 607 kts 65°
2026-05-07 06:48 35.60588 -99.71053 37180 ft 607 kts 65°
2026-05-07 06:48 35.63961 -99.61788 37187 ft 608 kts 65°
2026-05-07 06:49 35.67404 -99.52292 37191 ft 609 kts 65°
2026-05-07 06:49 35.70850 -99.42758 37195 ft 609 kts 65°
2026-05-07 06:50 35.74284 -99.33224 37190 ft 609 kts 65°
2026-05-07 06:50 35.77713 -99.23675 37184 ft 609 kts 65°
2026-05-07 06:51 35.81114 -99.14176 37179 ft 609 kts 65°
2026-05-07 06:51 35.84529 -99.04607 37171 ft 610 kts 65°
2026-05-07 06:52 35.87935 -98.95035 37168 ft 610 kts 65°
2026-05-07 06:52 35.91338 -98.85442 37166 ft 611 kts 65°
2026-05-07 06:53 35.94702 -98.75928 37175 ft 612 kts 65°
2026-05-07 06:53 35.98079 -98.66350 37177 ft 612 kts 66°
2026-05-07 06:54 36.01472 -98.56695 37174 ft 613 kts 66°
2026-05-07 06:54 36.04862 -98.47018 37179 ft 613 kts 66°
2026-05-07 06:55 36.08243 -98.37338 37178 ft 614 kts 66°
2026-05-07 06:55 36.11621 -98.27633 37164 ft 615 kts 66°
2026-05-07 06:56 36.15000 -98.17898 37140 ft 616 kts 66°
2026-05-07 06:56 36.18308 -98.08333 37135 ft 617 kts 66°
2026-05-07 06:57 36.21668 -97.98590 37134 ft 618 kts 66°
2026-05-07 06:57 36.25039 -97.88780 37137 ft 619 kts 66°
2026-05-07 06:58 36.28333 -97.79167 37168 ft 620 kts 66°
2026-05-07 06:58 36.31702 -97.69301 37173 ft 621 kts 66°
2026-05-07 06:59 36.35038 -97.59500 37163 ft 621 kts 66°
2026-05-07 06:59 36.38393 -97.49612 37158 ft 621 kts 66°
2026-05-07 07:00 36.41739 -97.39720 37152 ft 621 kts 66°
2026-05-07 07:00 36.45078 -97.29811 37156 ft 621 kts 66°
2026-05-07 07:01 36.48408 -97.19899 37158 ft 621 kts 66°
2026-05-07 07:01 36.51709 -97.10039 37160 ft 622 kts 67°
2026-05-07 07:02 36.55030 -97.00088 37168 ft 622 kts 67°
2026-05-07 07:02 36.58281 -96.90314 37160 ft 623 kts 67°
2026-05-07 07:03 36.61590 -96.80334 37156 ft 624 kts 67°
2026-05-07 07:03 36.64890 -96.70343 37157 ft 624 kts 67°
2026-05-07 07:04 36.68166 -96.60395 37157 ft 625 kts 67°
2026-05-07 07:04 36.71465 -96.50342 37163 ft 626 kts 67°
2026-05-07 07:05 36.74751 -96.40292 37168 ft 626 kts 67°
2026-05-07 07:05 36.78034 -96.30219 37176 ft 627 kts 67°
2026-05-07 07:06 36.81290 -96.20194 37181 ft 627 kts 67°
2026-05-07 07:06 36.84520 -96.10212 37184 ft 627 kts 67°
2026-05-07 07:07 36.87679 -96.00422 37179 ft 627 kts 67°
2026-05-07 07:07 36.90852 -95.90553 37155 ft 627 kts 68°
2026-05-07 07:08 36.94097 -95.80423 37140 ft 627 kts 68°
2026-05-07 07:08 36.97219 -95.70645 37144 ft 628 kts 68°
2026-05-07 07:09 37.00454 -95.60478 37144 ft 628 kts 68°
2026-05-07 07:09 37.03677 -95.50312 37151 ft 629 kts 68°
2026-05-07 07:10 37.06896 -95.40122 37152 ft 630 kts 68°
2026-05-07 07:10 37.10111 -95.29908 37149 ft 630 kts 68°
2026-05-07 07:11 37.13224 -95.19984 37151 ft 631 kts 68°
2026-05-07 07:11 37.16428 -95.09736 37150 ft 631 kts 68°
2026-05-07 07:12 37.19049 -95.01323 37143 ft 631 kts 68°
2026-05-07 07:12 37.22238 -94.91054 37150 ft 632 kts 68°
2026-05-07 07:13 37.25424 -94.80758 37148 ft 632 kts 68°
2026-05-07 07:13 37.28597 -94.70464 37146 ft 632 kts 68°
2026-05-07 07:14 37.31763 -94.60155 37142 ft 633 kts 68°
2026-05-07 07:14 37.34926 -94.49821 37146 ft 633 kts 68°
2026-05-07 07:15 37.38054 -94.39562 37140 ft 633 kts 69°
2026-05-07 07:15 37.41201 -94.29204 37133 ft 633 kts 69°
2026-05-07 07:16 37.44257 -94.19115 37130 ft 633 kts 69°
2026-05-07 07:16 37.47358 -94.08863 37129 ft 634 kts 69°
2026-05-07 07:17 37.50427 -93.98432 37129 ft 634 kts 72°
2026-05-07 07:17 37.53189 -93.87940 37116 ft 634 kts 71°
2026-05-07 07:18 37.56068 -93.77418 37122 ft 635 kts 71°
2026-05-07 07:18 37.58875 -93.67007 37121 ft 636 kts 71°
2026-05-07 07:19 37.61698 -93.56425 37140 ft 636 kts 71°
2026-05-07 07:19 37.64512 -93.45821 37139 ft 637 kts 71°
2026-05-07 07:20 37.67258 -93.35435 37128 ft 638 kts 72°
2026-05-07 07:20 37.69989 -93.25062 37126 ft 638 kts 72°
2026-05-07 07:21 37.72754 -93.14512 37127 ft 639 kts 72°
2026-05-07 07:21 37.75540 -93.03844 37136 ft 639 kts 72°
2026-05-07 07:22 37.78316 -92.93166 37135 ft 640 kts 72°
2026-05-07 07:22 37.81082 -92.82481 37139 ft 640 kts 72°
2026-05-07 07:23 37.83851 -92.71740 37142 ft 641 kts 72°
2026-05-07 07:23 37.86603 -92.61021 37139 ft 641 kts 72°
2026-05-07 07:24 37.89352 -92.50268 37132 ft 641 kts 72°
2026-05-07 07:24 37.92008 -92.39834 37136 ft 642 kts 72°
2026-05-07 07:25 37.96017 -92.23997 37110 ft 642 kts 72°
2026-05-07 07:26 37.98736 -92.13202 37110 ft 643 kts 72°
2026-05-07 07:26 38.01447 -92.02390 37121 ft 643 kts 72°
2026-05-07 07:27 38.04147 -91.91571 37123 ft 643 kts 72°
2026-05-07 07:27 38.06840 -91.80737 37125 ft 644 kts 72°
2026-05-07 07:28 38.09508 -91.69949 37122 ft 644 kts 72°
2026-05-07 07:28 38.12182 -91.59096 37125 ft 645 kts 72°
2026-05-07 07:29 38.14848 -91.48227 37123 ft 645 kts 73°
2026-05-07 07:29 38.17425 -91.37672 37142 ft 645 kts 73°
2026-05-07 07:30 38.20067 -91.26799 37150 ft 646 kts 73°
2026-05-07 07:30 38.22711 -91.15874 37147 ft 646 kts 73°
2026-05-07 07:31 38.25344 -91.04941 37148 ft 646 kts 73°
2026-05-07 07:31 38.27967 -90.94002 37132 ft 646 kts 73°
2026-05-07 07:32 38.30511 -90.83340 37118 ft 646 kts 73°
2026-05-07 07:32 38.33120 -90.72361 37107 ft 647 kts 73°
2026-05-07 07:33 38.35709 -90.61410 37100 ft 647 kts 73°
2026-05-07 07:33 38.38233 -90.50689 37113 ft 647 kts 73°
2026-05-07 07:34 38.40766 -90.39880 37109 ft 648 kts 73°
2026-05-07 07:34 38.43334 -90.28869 37107 ft 648 kts 73°
2026-05-07 07:35 38.45893 -90.17848 37106 ft 648 kts 73°
2026-05-07 07:35 38.48447 -90.06807 37103 ft 648 kts 73°
2026-05-07 07:36 38.51259 -89.95975 37100 ft 646 kts 65°
2026-05-07 07:36 38.54800 -89.85419 37110 ft 646 kts 64°
2026-05-07 07:37 38.58346 -89.74853 37109 ft 647 kts 65°
2026-05-07 07:37 38.61862 -89.64260 37096 ft 647 kts 65°
2026-05-07 07:38 38.65332 -89.53724 37096 ft 647 kts 65°
2026-05-07 07:38 38.68727 -89.43371 37101 ft 647 kts 65°
2026-05-07 07:39 38.72199 -89.32737 37105 ft 647 kts 65°
2026-05-07 07:39 38.75667 -89.22080 37100 ft 647 kts 65°
2026-05-07 07:40 38.79120 -89.11429 37099 ft 647 kts 65°
2026-05-07 07:40 38.82565 -89.00761 37096 ft 647 kts 65°
2026-05-07 07:41 38.85995 -88.90100 37092 ft 647 kts 65°
2026-05-07 07:41 38.89418 -88.79417 37091 ft 647 kts 65°
2026-05-07 07:42 38.92808 -88.68799 37090 ft 647 kts 65°
2026-05-07 07:42 38.96143 -88.58316 37087 ft 647 kts 65°
2026-05-07 07:43 38.99109 -88.48957 37092 ft 647 kts 65°
2026-05-07 07:43 39.02492 -88.38245 37091 ft 647 kts 66°
2026-05-07 07:44 39.05869 -88.27508 37092 ft 647 kts 66°
2026-05-07 07:44 39.09179 -88.16947 37086 ft 647 kts 66°
2026-05-07 07:45 39.12532 -88.06205 37087 ft 647 kts 66°
2026-05-07 07:45 39.15881 -87.95439 37090 ft 647 kts 66°
2026-05-07 07:46 39.19216 -87.84671 37090 ft 647 kts 66°
2026-05-07 07:46 39.22528 -87.73935 37088 ft 647 kts 66°
2026-05-07 07:47 39.25724 -87.63537 37087 ft 646 kts 66°
2026-05-07 07:47 39.28819 -87.53432 37085 ft 646 kts 66°
2026-05-07 07:48 39.32093 -87.42697 37085 ft 646 kts 66°
2026-05-07 07:48 39.35376 -87.31891 37089 ft 646 kts 66°
2026-05-07 07:49 39.38651 -87.21071 37089 ft 646 kts 66°
2026-05-07 07:49 39.41916 -87.10235 37097 ft 646 kts 66°
2026-05-07 07:50 39.45168 -86.99402 37093 ft 646 kts 67°
2026-05-07 07:50 39.48412 -86.88554 37077 ft 646 kts 67°
2026-05-07 07:51 39.51616 -86.77792 37076 ft 645 kts 67°
2026-05-07 07:51 39.54127 -86.69332 37086 ft 645 kts 67°
2026-05-07 07:52 39.57683 -86.57301 37072 ft 645 kts 67°
2026-05-07 07:52 39.60885 -86.46420 37074 ft 645 kts 67°
2026-05-07 07:53 39.64057 -86.35599 37074 ft 645 kts 67°
2026-05-07 07:53 39.67235 -86.24712 37068 ft 645 kts 67°
2026-05-07 07:54 39.70094 -86.14879 37061 ft 645 kts 67°
2026-05-07 07:54 39.73257 -86.03959 37067 ft 646 kts 68°
2026-05-07 07:55 39.76406 -85.93040 37061 ft 646 kts 68°
2026-05-07 07:55 39.79455 -85.82425 37060 ft 646 kts 68°
2026-05-07 07:56 39.81920 -85.73813 37058 ft 646 kts 68°
2026-05-07 07:56 39.85044 -85.62854 37057 ft 646 kts 68°
2026-05-07 07:57 39.88157 -85.51892 37050 ft 647 kts 68°
2026-05-07 07:57 39.91253 -85.40941 37053 ft 646 kts 68°
2026-05-07 07:58 39.94350 -85.29939 37048 ft 646 kts 68°
2026-05-07 07:58 39.97432 -85.18944 37041 ft 646 kts 68°
2026-05-07 07:59 40.00506 -85.07930 37038 ft 645 kts 68°
2026-05-07 07:59 40.03567 -84.96918 37033 ft 645 kts 68°
2026-05-07 08:00 40.06617 -84.85895 37026 ft 646 kts 68°
2026-05-07 08:00 40.09248 -84.76347 37031 ft 646 kts 68°
2026-05-07 08:01 40.12258 -84.65383 37036 ft 646 kts 68°
2026-05-07 08:01 40.15277 -84.54339 37034 ft 646 kts 69°
2026-05-07 08:02 40.18293 -84.43257 37032 ft 646 kts 69°
2026-05-07 08:02 40.20793 -84.34033 37032 ft 646 kts 69°
2026-05-07 08:03 40.24276 -84.21140 37029 ft 646 kts 69°
2026-05-07 08:03 40.26777 -84.11860 37017 ft 646 kts 69°
2026-05-07 08:04 40.29804 -84.00760 37015 ft 645 kts 64°
2026-05-07 08:04 40.33642 -83.90247 37034 ft 642 kts 59°
2026-05-07 08:05 40.37009 -83.81312 37037 ft 643 kts 60°
2026-05-07 08:05 40.40676 -83.71205 37040 ft 644 kts 61°
2026-05-07 08:06 40.44471 -83.60564 37033 ft 643 kts 61°
2026-05-07 08:06 40.48125 -83.50268 37020 ft 642 kts 61°
2026-05-07 08:07 40.51867 -83.39692 37007 ft 642 kts 61°
2026-05-07 08:07 40.55616 -83.29057 36998 ft 641 kts 62°
2026-05-07 08:08 40.59355 -83.18412 36996 ft 641 kts 62°
2026-05-07 08:08 40.63082 -83.07762 36997 ft 641 kts 62°
2026-05-07 08:09 40.66605 -82.97657 36996 ft 640 kts 62°
2026-05-07 08:09 40.69839 -82.88348 36995 ft 640 kts 62°
2026-05-07 08:10 40.73539 -82.77663 36994 ft 640 kts 62°
2026-05-07 08:10 40.77223 -82.66983 36978 ft 640 kts 62°
2026-05-07 08:11 40.80880 -82.56341 36970 ft 639 kts 62°
2026-05-07 08:11 40.84541 -82.45647 36974 ft 639 kts 62°
2026-05-07 08:12 40.88191 -82.34941 36996 ft 639 kts 62°
2026-05-07 08:12 40.91834 -82.24219 37008 ft 639 kts 62°
2026-05-07 08:13 40.95468 -82.13480 37018 ft 639 kts 62°
2026-05-07 08:13 40.98966 -82.03108 37006 ft 638 kts 62°
2026-05-07 08:14 41.02632 -81.93511 37002 ft 634 kts 57°
2026-05-07 08:14 41.06877 -81.83193 37004 ft 634 kts 57°
2026-05-07 08:15 41.10926 -81.73312 36997 ft 633 kts 57°
2026-05-07 08:15 41.15122 -81.63030 36988 ft 633 kts 57°
2026-05-07 08:16 41.19200 -81.52980 36989 ft 632 kts 57°
2026-05-07 08:16 41.23361 -81.42687 36988 ft 632 kts 57°
2026-05-07 08:17 41.27508 -81.32389 36990 ft 631 kts 57°
2026-05-07 08:17 41.31618 -81.22151 36993 ft 631 kts 57°
2026-05-07 08:18 41.35610 -81.12172 36990 ft 630 kts 57°
2026-05-07 08:18 41.39574 -81.02227 37001 ft 629 kts 58°
2026-05-07 08:19 41.43436 -80.92508 36982 ft 628 kts 58°
2026-05-07 08:19 41.47517 -80.82201 36967 ft 628 kts 58°
2026-05-07 08:20 41.51586 -80.71890 36974 ft 628 kts 58°
2026-05-07 08:20 41.55643 -80.61574 36969 ft 628 kts 58°
2026-05-07 08:21 41.59671 -80.51293 36979 ft 627 kts 58°
2026-05-07 08:21 41.63706 -80.40957 36983 ft 626 kts 58°
2026-05-07 08:22 41.67723 -80.30631 36979 ft 625 kts 58°
2026-05-07 08:22 41.71733 -80.20287 36979 ft 624 kts 58°
2026-05-07 08:23 41.75512 -80.10506 36979 ft 623 kts 58°
2026-05-07 08:23 41.79201 -80.00926 36982 ft 622 kts 59°
2026-05-07 08:24 41.83034 -79.90938 36985 ft 621 kts 59°
2026-05-07 08:24 41.86977 -79.80626 36985 ft 620 kts 59°
2026-05-07 08:25 41.90751 -79.70724 36995 ft 620 kts 59°
2026-05-07 08:25 41.94671 -79.60400 36992 ft 620 kts 59°
2026-05-07 08:26 42.00530 -79.44901 36990 ft 619 kts 59°
2026-05-07 08:26 42.04424 -79.34554 36984 ft 618 kts 59°
2026-05-07 08:27 42.08100 -79.24749 36980 ft 617 kts 60°
2026-05-07 08:27 42.11959 -79.14422 36970 ft 616 kts 60°
2026-05-07 08:28 42.15721 -79.04320 36969 ft 615 kts 60°
2026-05-07 08:28 42.19506 -78.94118 36968 ft 614 kts 60°
2026-05-07 08:29 42.23334 -78.83764 36967 ft 613 kts 60°
2026-05-07 08:29 42.27128 -78.73463 36963 ft 613 kts 60°
2026-05-07 08:30 42.30918 -78.63137 36958 ft 612 kts 60°
2026-05-07 08:30 42.34691 -78.52818 36961 ft 612 kts 60°
2026-05-07 08:31 42.38453 -78.42494 36962 ft 612 kts 60°
2026-05-07 08:31 42.41974 -78.32795 36971 ft 611 kts 61°
2026-05-07 08:32 42.45707 -78.22474 36975 ft 610 kts 61°
2026-05-07 08:32 42.49189 -78.12814 36983 ft 609 kts 61°
2026-05-07 08:33 42.52833 -78.02672 36985 ft 609 kts 61°
2026-05-07 08:33 42.56528 -77.92347 36977 ft 608 kts 61°
2026-05-07 08:34 42.59863 -77.82995 36979 ft 608 kts 61°
2026-05-07 08:34 42.63540 -77.72647 36972 ft 607 kts 62°
2026-05-07 08:35 42.67176 -77.62379 36979 ft 607 kts 62°
2026-05-07 08:35 42.70833 -77.52013 36984 ft 607 kts 62°
2026-05-07 08:36 42.74471 -77.41658 36981 ft 606 kts 62°
2026-05-07 08:36 42.78019 -77.31525 36978 ft 605 kts 62°
2026-05-07 08:37 42.81630 -77.21175 36973 ft 604 kts 62°
2026-05-07 08:37 42.85066 -77.11289 36968 ft 604 kts 62°
2026-05-07 08:38 42.88647 -77.00946 36967 ft 603 kts 62°
2026-05-07 08:38 42.92193 -76.90669 36963 ft 602 kts 62°
2026-05-07 08:39 42.95750 -76.80320 36962 ft 602 kts 62°
2026-05-07 08:39 42.99297 -76.69958 36966 ft 602 kts 63°
2026-05-07 08:40 43.02834 -76.59591 36973 ft 602 kts 63°
2026-05-07 08:40 43.06255 -76.49524 36973 ft 602 kts 63°
2026-05-07 08:41 43.09758 -76.39185 36976 ft 601 kts 63°
2026-05-07 08:41 43.13267 -76.28808 36979 ft 600 kts 63°
2026-05-07 08:42 43.16641 -76.18807 36975 ft 599 kts 62°
2026-05-07 08:42 43.20577 -76.08766 36971 ft 596 kts 57°
2026-05-07 08:43 43.24605 -75.98944 36969 ft 596 kts 58°
2026-05-07 08:43 43.28597 -75.88984 36962 ft 595 kts 58°
2026-05-07 08:44 43.32447 -75.79262 36936 ft 595 kts 59°
2026-05-07 08:44 43.36384 -75.69268 36941 ft 594 kts 59°
2026-05-07 08:45 43.40281 -75.59348 36944 ft 594 kts 59°
2026-05-07 08:45 43.44174 -75.49400 36947 ft 594 kts 59°
2026-05-07 08:46 43.48068 -75.39417 36950 ft 594 kts 59°
2026-05-07 08:46 43.51890 -75.29581 36947 ft 595 kts 59°
2026-05-07 08:47 43.55783 -75.19530 36939 ft 594 kts 59°
2026-05-07 08:47 43.59667 -75.09467 36934 ft 594 kts 60°
2026-05-07 08:48 43.63542 -74.99388 36925 ft 593 kts 60°
2026-05-07 08:48 43.67405 -74.89307 36925 ft 593 kts 60°
2026-05-07 08:49 43.71246 -74.79247 36909 ft 592 kts 60°
2026-05-07 08:49 43.75084 -74.69158 36905 ft 592 kts 60°
2026-05-07 08:50 43.78860 -74.59197 36899 ft 592 kts 60°
2026-05-07 08:50 43.82670 -74.49111 36893 ft 591 kts 60°
2026-05-07 08:51 43.85834 -74.40706 36890 ft 591 kts 60°
2026-05-07 08:51 43.90085 -74.29375 36888 ft 591 kts 60°
2026-05-07 08:52 43.93868 -74.19253 36871 ft 590 kts 60°
2026-05-07 08:52 43.97029 -74.10763 36867 ft 590 kts 60°
2026-05-07 08:53 44.00671 -74.00954 36861 ft 589 kts 60°
2026-05-07 08:53 44.04401 -73.90871 36855 ft 588 kts 61°
2026-05-07 08:54 44.08135 -73.80739 36854 ft 588 kts 61°
2026-05-07 08:54 44.11828 -73.70681 36845 ft 587 kts 61°
2026-05-07 08:55 44.15532 -73.60560 36840 ft 586 kts 61°
2026-05-07 08:55 44.19225 -73.50429 36842 ft 586 kts 61°
2026-05-07 08:56 44.22873 -73.40389 36843 ft 585 kts 61°
2026-05-07 08:56 44.26541 -73.30251 36852 ft 585 kts 61°
2026-05-07 08:57 44.30200 -73.20101 36852 ft 585 kts 62°
2026-05-07 08:57 44.33823 -73.10014 36857 ft 585 kts 62°
2026-05-07 08:58 44.37461 -72.99847 36859 ft 585 kts 62°
2026-05-07 08:58 44.41093 -72.89662 36861 ft 585 kts 62°
2026-05-07 08:59 44.44711 -72.79479 36860 ft 584 kts 62°
2026-05-07 08:59 44.48317 -72.69290 36853 ft 583 kts 62°
2026-05-07 09:00 44.51913 -72.59090 36851 ft 583 kts 62°
2026-05-07 09:00 44.55487 -72.48913 36845 ft 582 kts 62°
2026-05-07 09:01 44.59022 -72.38811 36845 ft 582 kts 62°
2026-05-07 09:01 44.62579 -72.28608 36846 ft 581 kts 62°
2026-05-07 09:02 44.66119 -72.18416 36842 ft 580 kts 62°
2026-05-07 09:02 44.69607 -72.08335 36843 ft 580 kts 62°
2026-05-07 09:03 44.73124 -71.98132 36839 ft 579 kts 63°
2026-05-07 09:03 44.76630 -71.87924 36833 ft 579 kts 63°
2026-05-07 09:04 44.80125 -71.77730 36831 ft 578 kts 63°
2026-05-07 09:04 44.83906 -71.67870 36833 ft 574 kts 53°
2026-05-07 09:05 44.88374 -71.58541 36838 ft 574 kts 53°
2026-05-07 09:05 44.92829 -71.49194 36838 ft 573 kts 53°
2026-05-07 09:06 44.97256 -71.39846 36845 ft 572 kts 53°
2026-05-07 09:06 45.01666 -71.30485 36844 ft 571 kts 53°
2026-05-07 09:07 45.06057 -71.21129 36842 ft 570 kts 54°
2026-05-07 09:07 45.10430 -71.11779 36840 ft 569 kts 54°
2026-05-07 09:08 45.14793 -71.02421 36829 ft 568 kts 54°
2026-05-07 09:08 45.19108 -70.93137 36818 ft 567 kts 54°
2026-05-07 09:09 45.23443 -70.83777 36812 ft 566 kts 54°
2026-05-07 09:09 45.27756 -70.74434 36809 ft 565 kts 54°
2026-05-07 09:10 45.32054 -70.65095 36799 ft 564 kts 54°
2026-05-07 09:10 45.36351 -70.55726 36794 ft 564 kts 54°
2026-05-07 09:11 45.40566 -70.46506 36790 ft 563 kts 54°
2026-05-07 09:11 45.44829 -70.37151 36782 ft 563 kts 55°
2026-05-07 09:12 45.49083 -70.27783 36780 ft 563 kts 55°
2026-05-07 09:12 45.53327 -70.18406 36780 ft 563 kts 55°
2026-05-07 09:13 45.57565 -70.09014 36777 ft 562 kts 55°
2026-05-07 09:13 45.61786 -69.99626 36769 ft 561 kts 56°
2026-05-07 09:14 45.65996 -69.90231 36766 ft 561 kts 56°
2026-05-07 09:14 45.70194 -69.80832 36759 ft 560 kts 56°
2026-05-07 09:15 45.74382 -69.71425 36757 ft 559 kts 56°
2026-05-07 09:15 45.78532 -69.62072 36760 ft 559 kts 56°
2026-05-07 09:16 45.82696 -69.52657 36761 ft 559 kts 56°
2026-05-07 09:16 45.86844 -69.43244 36760 ft 558 kts 56°
2026-05-07 09:17 45.90984 -69.33819 36760 ft 558 kts 56°
2026-05-07 09:17 45.95116 -69.24380 36758 ft 557 kts 57°
2026-05-07 09:18 45.99232 -69.14946 36758 ft 557 kts 57°
2026-05-07 09:18 46.03344 -69.05491 36760 ft 557 kts 57°
2026-05-07 09:19 46.07418 -68.96090 36758 ft 557 kts 57°
2026-05-07 09:19 46.11507 -68.86623 36756 ft 557 kts 57°
2026-05-07 09:20 46.15588 -68.77142 36756 ft 556 kts 57°
2026-05-07 09:20 46.19666 -68.67635 36756 ft 556 kts 57°
2026-05-07 09:21 46.23733 -68.58121 36754 ft 556 kts 57°
2026-05-07 09:21 46.27787 -68.48607 36739 ft 555 kts 58°
2026-05-07 09:22 46.31802 -68.39152 36743 ft 555 kts 58°
2026-05-07 09:22 46.35831 -68.29629 36738 ft 554 kts 58°
2026-05-07 09:23 46.39848 -68.20103 36730 ft 554 kts 58°
2026-05-07 09:23 46.43851 -68.10577 36731 ft 553 kts 58°
2026-05-07 09:24 46.47848 -68.01033 36726 ft 553 kts 58°
2026-05-07 09:24 46.51830 -67.91493 36726 ft 552 kts 59°
2026-05-07 09:25 46.55797 -67.81954 36720 ft 552 kts 59°
2026-05-07 09:25 46.59735 -67.72453 36712 ft 552 kts 59°
2026-05-07 09:26 46.63689 -67.62881 36714 ft 551 kts 59°
2026-05-07 09:26 46.67640 -67.53280 36711 ft 551 kts 59°
2026-05-07 09:27 46.71572 -67.43695 36709 ft 551 kts 59°
2026-05-07 09:28 46.77428 -67.29356 36703 ft 550 kts 59°
2026-05-07 09:28 46.81340 -67.19741 36700 ft 550 kts 60°
2026-05-07 09:29 46.85237 -67.10143 36693 ft 549 kts 60°
2026-05-07 09:29 46.89630 -67.01025 36687 ft 548 kts 47°
2026-05-07 09:30 46.94647 -66.92701 36678 ft 548 kts 48°
2026-05-07 09:30 46.99677 -66.84304 36676 ft 548 kts 48°
2026-05-07 09:31 47.04709 -66.75905 36670 ft 548 kts 48°
2026-05-07 09:31 47.09732 -66.67501 36659 ft 548 kts 49°
2026-05-07 09:32 47.14755 -66.59071 36655 ft 547 kts 49°
2026-05-07 09:32 47.19770 -66.50628 36657 ft 547 kts 49°
2026-05-07 09:33 47.24768 -66.42178 36651 ft 547 kts 49°
2026-05-07 09:33 47.29719 -66.33775 36640 ft 547 kts 49°
2026-05-07 09:34 47.34698 -66.25295 36637 ft 546 kts 49°
2026-05-07 09:34 47.39666 -66.16808 36634 ft 546 kts 50°
2026-05-07 09:35 47.44625 -66.08308 36629 ft 546 kts 50°
2026-05-07 09:35 47.49585 -65.99782 36619 ft 546 kts 50°
2026-05-07 09:36 47.54493 -65.91316 36616 ft 545 kts 50°
2026-05-07 09:36 47.59427 -65.82781 36617 ft 545 kts 50°
2026-05-07 09:37 47.64354 -65.74229 36618 ft 545 kts 50°
2026-05-07 09:37 47.69283 -65.65648 36616 ft 545 kts 50°
2026-05-07 09:38 47.74185 -65.57086 36613 ft 544 kts 51°
2026-05-07 09:38 47.79080 -65.48509 36615 ft 544 kts 51°
2026-05-07 09:39 47.83944 -65.39959 36615 ft 543 kts 51°
2026-05-07 09:39 47.88816 -65.31368 36616 ft 543 kts 51°
2026-05-07 09:40 47.93682 -65.22760 36612 ft 542 kts 51°
2026-05-07 09:40 47.98519 -65.14175 36614 ft 542 kts 51°
2026-05-07 09:41 48.03364 -65.05549 36620 ft 542 kts 51°
2026-05-07 09:41 48.07419 -64.98307 36621 ft 541 kts 51°
2026-05-07 09:42 48.12216 -64.89716 36618 ft 541 kts 52°
2026-05-07 09:42 48.17039 -64.81050 36619 ft 541 kts 52°
2026-05-07 09:43 48.21841 -64.72395 36616 ft 541 kts 52°
2026-05-07 09:43 48.26653 -64.63694 36618 ft 541 kts 52°
2026-05-07 09:44 48.31448 -64.54993 36621 ft 541 kts 52°
2026-05-07 09:44 48.36249 -64.46255 36621 ft 541 kts 52°
2026-05-07 09:45 48.41032 -64.37520 36629 ft 541 kts 52°
2026-05-07 09:45 48.45815 -64.28757 36627 ft 541 kts 52°
2026-05-07 09:46 48.50558 -64.20040 36622 ft 541 kts 53°
2026-05-07 09:46 48.55323 -64.11251 36624 ft 541 kts 53°
2026-05-07 09:47 48.60088 -64.02434 36625 ft 541 kts 53°
2026-05-07 09:47 48.64844 -63.93605 36633 ft 541 kts 53°
2026-05-07 09:48 48.69597 -63.84753 36627 ft 541 kts 53°
2026-05-07 09:48 48.74318 -63.75932 36646 ft 542 kts 53°
2026-05-07 09:49 48.79068 -63.67026 36648 ft 543 kts 53°
2026-05-07 09:49 48.83818 -63.58091 36651 ft 543 kts 53°
2026-05-07 09:50 48.88554 -63.49151 36641 ft 543 kts 53°
2026-05-07 09:50 48.93292 -63.40179 36641 ft 543 kts 53°
2026-05-07 09:51 48.98000 -63.31233 36640 ft 543 kts 53°
2026-05-07 09:51 49.02719 -63.22235 36640 ft 543 kts 53°
2026-05-07 09:52 49.07437 -63.13210 36645 ft 544 kts 53°
2026-05-07 09:52 49.12151 -63.04161 36647 ft 544 kts 54°
2026-05-07 09:53 49.16835 -62.95138 36653 ft 545 kts 54°
2026-05-07 09:53 49.21553 -62.86020 36663 ft 546 kts 54°
2026-05-07 09:54 49.26267 -62.76877 36672 ft 547 kts 54°
2026-05-07 09:54 49.30977 -62.67712 36680 ft 548 kts 54°
2026-05-07 09:55 49.35664 -62.58560 36683 ft 549 kts 54°
2026-05-07 09:55 49.40377 -62.49326 36686 ft 549 kts 54°
2026-05-07 09:56 49.45076 -62.40086 36695 ft 549 kts 54°
2026-05-07 09:56 49.49780 -62.30802 36707 ft 550 kts 54°
2026-05-07 09:57 49.54478 -62.21501 36700 ft 549 kts 54°
2026-05-07 09:57 49.59165 -62.12188 36694 ft 549 kts 54°
2026-05-07 09:58 49.63806 -62.02933 36690 ft 548 kts 54°
2026-05-07 09:58 49.68468 -61.93604 36694 ft 548 kts 54°
2026-05-07 09:59 49.73119 -61.84264 36697 ft 548 kts 54°
2026-05-07 09:59 49.77759 -61.74912 36708 ft 548 kts 54°
2026-05-07 10:00 49.82371 -61.65586 36715 ft 548 kts 54°
2026-05-07 10:00 49.86996 -61.56198 36728 ft 548 kts 54°
2026-05-07 10:01 49.91623 -61.46773 36728 ft 548 kts 54°
2026-05-07 10:01 49.96235 -61.37347 36748 ft 548 kts 55°
2026-05-07 10:02 50.00840 -61.27900 36757 ft 548 kts 55°
2026-05-07 10:02 50.05443 -61.18423 36764 ft 548 kts 55°
2026-05-07 10:03 50.10027 -61.08952 36773 ft 548 kts 55°
2026-05-07 10:03 50.14577 -60.99518 36768 ft 547 kts 55°
2026-05-07 10:04 50.19168 -60.89963 36780 ft 547 kts 55°
2026-05-07 10:04 50.23724 -60.80445 36787 ft 547 kts 55°
2026-05-07 10:05 50.28235 -60.70991 36797 ft 547 kts 55°
2026-05-07 10:05 50.32782 -60.61424 36804 ft 547 kts 56°
2026-05-07 10:06 50.37319 -60.51845 36810 ft 547 kts 56°
2026-05-07 10:06 50.41853 -60.42237 36828 ft 548 kts 56°
2026-05-07 10:07 50.46349 -60.32672 36833 ft 548 kts 56°
2026-05-07 10:07 50.50867 -60.23027 36838 ft 548 kts 56°
2026-05-07 10:08 50.55371 -60.13376 36843 ft 548 kts 56°
2026-05-07 10:08 50.59880 -60.03680 36845 ft 548 kts 56°
2026-05-07 10:09 50.64345 -59.94043 36851 ft 547 kts 56°
2026-05-07 10:09 50.68829 -59.84329 36857 ft 547 kts 56°
2026-05-07 10:10 50.73303 -59.74601 36859 ft 547 kts 56°
2026-05-07 10:10 50.77766 -59.64859 36860 ft 547 kts 56°
2026-05-07 10:11 50.82219 -59.55104 36865 ft 547 kts 56°
2026-05-07 10:11 50.86636 -59.45389 36865 ft 546 kts 56°
2026-05-07 10:12 50.91069 -59.35605 36868 ft 546 kts 56°
2026-05-07 10:12 50.95494 -59.25800 36873 ft 547 kts 56°
2026-05-07 10:13 50.99915 -59.15971 36870 ft 547 kts 56°
2026-05-07 10:13 51.04328 -59.06118 36874 ft 548 kts 56°
2026-05-07 10:14 51.08746 -58.96219 36877 ft 548 kts 57°
2026-05-07 10:14 51.13159 -58.86293 36880 ft 549 kts 57°
2026-05-07 10:15 51.17538 -58.76405 36891 ft 550 kts 57°
2026-05-07 10:15 51.21952 -58.66400 36909 ft 551 kts 57°
2026-05-07 10:16 51.26370 -58.56347 36897 ft 552 kts 57°
2026-05-07 10:16 51.30777 -58.46282 36897 ft 552 kts 57°
2026-05-07 10:17 51.35145 -58.36266 36901 ft 553 kts 57°
2026-05-07 10:17 51.39534 -58.26163 36900 ft 553 kts 57°
2026-05-07 10:18 51.43915 -58.16040 36897 ft 553 kts 57°
2026-05-07 10:18 51.48291 -58.05887 36907 ft 553 kts 57°
2026-05-07 10:19 51.52655 -57.95724 36922 ft 553 kts 57°
2026-05-07 10:19 51.57012 -57.85536 36910 ft 553 kts 57°
2026-05-07 10:20 51.61333 -57.75392 36928 ft 553 kts 57°
2026-05-07 10:20 51.65670 -57.65169 36933 ft 553 kts 57°
2026-05-07 10:21 51.69999 -57.54927 36939 ft 553 kts 57°
2026-05-07 10:21 51.74315 -57.44674 36936 ft 552 kts 57°
2026-05-07 10:22 51.78628 -57.34388 36938 ft 552 kts 57°
2026-05-07 10:22 51.82922 -57.24105 36946 ft 552 kts 57°
2026-05-07 10:23 51.87201 -57.13818 36944 ft 551 kts 57°
2026-05-07 10:23 51.91472 -57.03510 36943 ft 551 kts 57°
2026-05-07 10:24 51.95706 -56.93247 36941 ft 550 kts 57°
2026-05-07 10:24 51.99953 -56.82914 36934 ft 550 kts 57°
2026-05-07 10:25 52.04190 -56.72563 36936 ft 550 kts 57°
2026-05-07 10:25 52.08415 -56.62200 36934 ft 549 kts 57°
2026-05-07 10:26 52.12628 -56.51824 36927 ft 549 kts 57°
2026-05-07 10:26 52.16830 -56.41433 36932 ft 549 kts 57°
2026-05-07 10:27 52.21020 -56.31043 36924 ft 549 kts 57°
2026-05-07 10:27 52.25207 -56.20635 36925 ft 548 kts 57°
2026-05-07 10:28 52.29356 -56.10283 36923 ft 548 kts 57°
2026-05-07 10:28 52.33528 -55.99830 36928 ft 548 kts 57°
2026-05-07 10:29 52.37681 -55.89374 36926 ft 548 kts 58°
2026-05-07 10:29 52.40899 -55.80432 36919 ft 548 kts 63°
2026-05-07 10:30 52.46005 -55.63689 36924 ft 547 kts 64°
2026-05-07 10:30 52.49468 -55.52545 36928 ft 548 kts 64°
2026-05-07 10:31 52.52894 -55.41382 36937 ft 548 kts 64°
2026-05-07 10:31 52.56304 -55.30162 36941 ft 548 kts 64°
2026-05-07 10:32 52.59676 -55.19008 36937 ft 548 kts 64°
2026-05-07 10:32 52.63067 -55.07740 36953 ft 548 kts 64°
2026-05-07 10:33 52.66441 -54.96476 36956 ft 548 kts 64°
2026-05-07 10:33 52.69805 -54.85193 36962 ft 548 kts 64°
2026-05-07 10:34 52.73162 -54.73877 36959 ft 548 kts 64°
2026-05-07 10:34 52.76484 -54.62628 36964 ft 548 kts 64°
2026-05-07 10:35 52.79804 -54.51331 36965 ft 547 kts 64°
2026-05-07 10:35 52.83124 -54.39982 36969 ft 547 kts 64°
2026-05-07 10:36 52.86425 -54.28641 36972 ft 546 kts 64°
2026-05-07 10:36 52.89696 -54.17352 36970 ft 546 kts 64°
2026-05-07 10:37 52.92966 -54.06011 36975 ft 545 kts 64°
2026-05-07 10:37 52.96233 -53.94626 36978 ft 545 kts 64°
2026-05-07 10:38 52.99478 -53.83262 36980 ft 544 kts 64°
2026-05-07 10:38 53.02690 -53.71959 36981 ft 544 kts 64°
2026-05-07 10:39 53.05904 -53.60596 36987 ft 543 kts 64°
2026-05-07 10:39 53.09105 -53.49222 36989 ft 542 kts 64°
2026-05-07 10:40 53.12293 -53.37837 36993 ft 541 kts 64°
2026-05-07 10:40 53.15464 -53.26460 36996 ft 540 kts 64°
2026-05-07 10:41 53.17044 -53.20782 36857 ft 540 kts 68°
2026-05-07 10:41 53.18616 -53.15100 37003 ft 541 kts 67°
2026-05-07 10:41 53.21780 -53.03624 37000 ft 548 kts 67°
2026-05-07 10:42 53.24956 -52.92065 37002 ft 548 kts 67°
2026-05-07 10:42 53.28115 -52.80504 37002 ft 547 kts 67°
2026-05-07 10:43 53.31242 -52.69001 37001 ft 547 kts 68°
2026-05-07 10:43 53.34383 -52.57392 37008 ft 546 kts 68°
2026-05-07 10:44 53.37504 -52.45796 37009 ft 546 kts 68°
2026-05-07 10:44 53.40617 -52.34168 37015 ft 546 kts 68°
2026-05-07 10:45 53.43711 -52.22553 37017 ft 545 kts 68°
2026-05-07 10:45 53.46774 -52.10998 37015 ft 544 kts 68°
2026-05-07 10:46 53.49841 -51.99368 37021 ft 544 kts 68°
2026-05-07 10:46 53.52895 -51.87728 37022 ft 543 kts 68°
2026-05-07 10:47 53.55911 -51.76173 37021 ft 542 kts 68°
2026-05-07 10:47 53.58933 -51.64534 37022 ft 542 kts 68°
2026-05-07 10:48 53.61935 -51.52913 37022 ft 541 kts 68°
2026-05-07 10:48 53.64929 -51.41264 37026 ft 540 kts 68°
2026-05-07 10:49 53.67903 -51.29633 37026 ft 540 kts 68°
2026-05-07 10:49 53.70848 -51.18053 37021 ft 540 kts 68°
2026-05-07 10:50 53.73799 -51.06391 37014 ft 539 kts 68°
2026-05-07 10:50 53.76735 -50.94724 37031 ft 539 kts 68°
2026-05-07 10:51 53.79635 -50.83141 37037 ft 538 kts 68°
2026-05-07 10:51 53.82541 -50.71475 37035 ft 538 kts 68°
2026-05-07 10:52 53.85438 -50.59780 37036 ft 537 kts 68°
2026-05-07 10:52 53.88314 -50.48112 37037 ft 536 kts 68°
2026-05-07 10:53 53.91176 -50.36434 37040 ft 536 kts 68°
2026-05-07 10:53 53.94015 -50.24793 37040 ft 535 kts 69°
2026-05-07 10:54 53.96856 -50.13109 37042 ft 535 kts 69°
2026-05-07 10:54 53.99668 -50.01412 37044 ft 534 kts 70°
2026-05-07 10:55 54.02028 -49.89438 37046 ft 533 kts 73°
2026-05-07 10:55 54.04370 -49.77548 37047 ft 533 kts 72°
2026-05-07 10:56 54.06734 -49.65577 37049 ft 533 kts 72°
2026-05-07 10:56 54.09076 -49.53589 37051 ft 533 kts 72°
2026-05-07 10:57 54.11386 -49.41662 37054 ft 533 kts 72°
2026-05-07 10:57 54.13689 -49.29655 37059 ft 532 kts 73°
2026-05-07 10:58 54.15977 -49.17633 37063 ft 532 kts 73°
2026-05-07 10:58 54.18254 -49.05595 37068 ft 532 kts 73°
2026-05-07 10:59 54.20515 -48.93560 37068 ft 532 kts 73°
2026-05-07 10:59 54.22764 -48.81519 37070 ft 531 kts 73°
2026-05-07 11:00 54.24986 -48.69542 37069 ft 531 kts 73°
2026-05-07 11:00 54.27208 -48.57481 37070 ft 531 kts 73°
2026-05-07 11:01 54.29416 -48.45423 37077 ft 531 kts 73°
2026-05-07 11:01 54.31614 -48.33346 37074 ft 531 kts 73°
2026-05-07 11:02 54.33795 -48.21278 37081 ft 530 kts 73°
2026-05-07 11:02 54.35955 -48.09250 37082 ft 530 kts 73°
2026-05-07 11:03 54.38113 -47.97150 37099 ft 530 kts 73°
2026-05-07 11:03 54.40258 -47.85044 37105 ft 530 kts 73°
2026-05-07 11:04 54.42386 -47.72955 37100 ft 529 kts 73°
2026-05-07 11:04 54.44501 -47.60853 37111 ft 528 kts 73°
2026-05-07 11:05 54.46602 -47.48751 37117 ft 527 kts 73°
2026-05-07 11:05 54.48671 -47.36757 37118 ft 526 kts 73°
2026-05-07 11:06 54.50741 -47.24672 37115 ft 525 kts 73°
2026-05-07 11:06 54.52795 -47.12599 37107 ft 525 kts 73°
2026-05-07 11:07 54.54835 -47.00528 37110 ft 524 kts 73°
2026-05-07 11:07 54.56856 -46.88483 37110 ft 523 kts 73°
2026-05-07 11:08 54.58857 -46.76479 37115 ft 523 kts 73°
2026-05-07 11:08 54.60852 -46.64423 37120 ft 523 kts 73°
2026-05-07 11:09 54.62837 -46.52343 37124 ft 522 kts 73°
2026-05-07 11:09 54.64807 -46.40273 37127 ft 522 kts 73°
2026-05-07 11:10 54.66770 -46.28155 37143 ft 522 kts 73°
2026-05-07 11:10 54.68705 -46.16126 37139 ft 522 kts 73°
2026-05-07 11:11 54.70638 -46.04022 37144 ft 521 kts 73°
2026-05-07 11:11 54.72552 -45.91953 37142 ft 520 kts 73°
2026-05-07 11:12 54.74455 -45.79868 37142 ft 520 kts 73°
2026-05-07 11:12 54.76344 -45.67780 37144 ft 519 kts 73°
2026-05-07 11:13 54.78218 -45.55703 37145 ft 519 kts 73°
2026-05-07 11:13 54.80069 -45.43689 37147 ft 519 kts 73°
2026-05-07 11:14 54.81919 -45.31593 37148 ft 519 kts 73°
2026-05-07 11:14 54.83761 -45.19457 37148 ft 519 kts 73°
2026-05-07 11:15 54.85585 -45.07344 37155 ft 520 kts 73°
2026-05-07 11:15 54.87405 -44.95170 37158 ft 520 kts 73°
2026-05-07 11:16 54.89213 -44.82984 37167 ft 520 kts 73°
2026-05-07 11:16 54.90995 -44.70882 37167 ft 520 kts 73°
2026-05-07 11:17 54.92781 -44.58659 37172 ft 521 kts 73°
2026-05-07 11:17 54.94549 -44.46463 37180 ft 521 kts 73°
2026-05-07 11:18 54.96310 -44.34224 37180 ft 521 kts 73°
2026-05-07 11:18 54.98056 -44.21985 37183 ft 521 kts 73°
2026-05-07 11:19 54.99499 -44.11802 37186 ft 521 kts 73°
2026-05-07 11:19 55.01218 -43.99580 37187 ft 520 kts 73°
2026-05-07 11:20 55.02929 -43.87321 37192 ft 520 kts 73°
2026-05-07 11:20 55.04628 -43.75050 37200 ft 520 kts 73°
2026-05-07 11:21 55.06316 -43.62749 37204 ft 520 kts 73°
2026-05-07 11:21 55.07989 -43.50461 37212 ft 520 kts 73°
2026-05-07 11:22 55.09650 -43.38164 37195 ft 520 kts 73°
2026-05-07 11:22 55.11290 -43.25919 37205 ft 520 kts 73°
2026-05-07 11:23 55.12926 -43.13604 37211 ft 520 kts 73°
2026-05-07 11:23 55.14553 -43.01242 37220 ft 520 kts 73°
2026-05-07 11:24 55.16166 -42.88891 37220 ft 520 kts 73°
2026-05-07 11:24 55.17756 -42.76610 37221 ft 520 kts 73°
2026-05-07 11:25 55.19348 -42.64207 37229 ft 521 kts 73°
2026-05-07 11:25 55.20924 -42.51822 37228 ft 521 kts 73°
2026-05-07 11:26 55.22487 -42.39430 37230 ft 521 kts 73°
2026-05-07 11:26 55.24036 -42.27039 37232 ft 521 kts 73°
2026-05-07 11:27 55.25578 -42.14591 37240 ft 521 kts 73°
2026-05-07 11:27 55.27094 -42.02248 37243 ft 521 kts 73°
2026-05-07 11:28 55.28611 -41.89781 37248 ft 522 kts 73°
2026-05-07 11:28 55.30108 -41.77361 37246 ft 521 kts 73°
2026-05-07 11:29 55.31597 -41.64903 37254 ft 521 kts 73°
2026-05-07 11:29 55.33073 -41.52436 37255 ft 521 kts 73°
2026-05-07 11:30 55.34537 -41.39948 37261 ft 521 kts 73°
2026-05-07 11:30 55.35990 -41.27440 37262 ft 521 kts 73°
2026-05-07 11:31 55.37416 -41.15040 37264 ft 521 kts 73°
2026-05-07 11:31 55.38843 -41.02521 37263 ft 521 kts 73°
2026-05-07 11:32 55.40956 -40.83749 37274 ft 521 kts 73°
2026-05-07 11:33 55.42348 -40.71232 37272 ft 521 kts 73°
2026-05-07 11:33 55.43728 -40.58695 37275 ft 521 kts 73°
2026-05-07 11:34 55.45090 -40.46200 37282 ft 521 kts 73°
2026-05-07 11:34 55.46449 -40.33666 37285 ft 521 kts 73°
2026-05-07 11:35 55.47803 -40.21104 37284 ft 521 kts 73°
2026-05-07 11:35 55.49144 -40.08550 37291 ft 521 kts 73°
2026-05-07 11:36 55.50177 -39.95848 37279 ft 526 kts 79°
2026-05-07 11:36 55.50632 -39.82946 37291 ft 527 kts 81°
2026-05-07 11:37 55.51144 -39.70063 37298 ft 526 kts 80°
2026-05-07 11:37 55.51653 -39.57241 37301 ft 526 kts 80°
2026-05-07 11:38 55.52144 -39.44344 37306 ft 527 kts 81°
2026-05-07 11:38 55.52612 -39.31439 37307 ft 527 kts 81°
2026-05-07 11:39 55.53060 -39.18538 37315 ft 526 kts 81°
2026-05-07 11:39 55.53494 -39.05622 37316 ft 526 kts 81°
2026-05-07 11:40 55.53914 -38.92714 37317 ft 526 kts 81°
2026-05-07 11:40 55.54318 -38.79904 37312 ft 525 kts 81°
2026-05-07 11:41 55.54711 -38.66996 37323 ft 525 kts 81°
2026-05-07 11:41 55.55089 -38.54107 37323 ft 524 kts 81°
2026-05-07 11:42 55.55452 -38.41308 37332 ft 524 kts 81°
2026-05-07 11:42 55.55803 -38.28451 37325 ft 524 kts 81°
2026-05-07 11:43 55.56141 -38.15578 37323 ft 523 kts 81°
2026-05-07 11:43 55.56464 -38.02736 37321 ft 523 kts 81°
2026-05-07 11:44 55.56772 -37.89978 37322 ft 523 kts 81°
2026-05-07 11:44 55.57069 -37.77145 37318 ft 522 kts 81°
2026-05-07 11:45 55.57352 -37.64294 37319 ft 523 kts 82°
2026-05-07 11:45 55.57622 -37.51460 37318 ft 523 kts 82°
2026-05-07 11:46 55.57877 -37.38673 37319 ft 523 kts 82°
2026-05-07 11:46 55.58120 -37.25801 37324 ft 524 kts 82°
2026-05-07 11:47 55.58350 -37.12918 37326 ft 524 kts 82°
2026-05-07 11:47 55.58567 -37.00008 37329 ft 524 kts 82°
2026-05-07 11:48 55.58769 -36.87192 37327 ft 525 kts 82°
2026-05-07 11:48 55.58959 -36.74303 37324 ft 525 kts 82°
2026-05-07 11:49 55.59135 -36.61370 37324 ft 525 kts 82°
2026-05-07 11:49 55.59298 -36.48444 37328 ft 525 kts 83°
2026-05-07 11:50 55.59448 -36.35512 37333 ft 526 kts 83°
2026-05-07 11:50 55.59582 -36.22659 37331 ft 525 kts 83°
2026-05-07 11:51 55.59704 -36.09731 37330 ft 525 kts 83°
2026-05-07 11:51 55.59813 -35.96793 37340 ft 525 kts 83°
2026-05-07 11:52 55.59907 -35.83971 37339 ft 524 kts 83°
2026-05-07 11:52 55.59988 -35.71097 37338 ft 523 kts 83°
2026-05-07 11:53 55.60056 -35.58142 37342 ft 523 kts 83°
2026-05-07 11:53 55.60110 -35.45384 37330 ft 522 kts 83°
2026-05-07 11:54 55.60151 -35.32547 37333 ft 521 kts 83°
2026-05-07 11:54 55.60178 -35.19753 37333 ft 521 kts 83°
2026-05-07 11:55 55.60192 -35.06888 37335 ft 520 kts 83°
2026-05-07 11:55 55.60192 -34.94155 37335 ft 520 kts 83°
2026-05-07 11:56 55.60180 -34.81343 37334 ft 519 kts 84°
2026-05-07 11:56 55.60154 -34.68636 37330 ft 519 kts 84°
2026-05-07 11:57 55.60114 -34.55856 37334 ft 519 kts 84°
2026-05-07 11:57 55.60062 -34.43109 37328 ft 519 kts 84°
2026-05-07 11:58 55.59996 -34.30333 37325 ft 519 kts 84°
2026-05-07 11:58 55.59917 -34.17568 37310 ft 519 kts 84°
2026-05-07 11:59 55.59825 -34.04800 37315 ft 519 kts 84°
2026-05-07 11:59 55.59719 -33.92006 37318 ft 520 kts 85°
2026-05-07 12:00 55.59601 -33.79281 37323 ft 521 kts 85°
2026-05-07 12:00 55.59468 -33.66456 37330 ft 522 kts 85°
2026-05-07 12:01 55.59322 -33.53624 37329 ft 522 kts 85°
2026-05-07 12:01 55.59162 -33.40750 37331 ft 523 kts 85°
2026-05-07 12:02 55.58988 -33.27877 37329 ft 523 kts 85°
2026-05-07 12:02 55.58803 -33.15095 37328 ft 523 kts 85°
2026-05-07 12:03 55.58602 -33.02226 37323 ft 523 kts 85°
2026-05-07 12:03 55.58388 -32.89352 37317 ft 523 kts 85°
2026-05-07 12:04 55.58200 -32.78661 37318 ft 524 kts 85°
2026-05-07 12:04 55.57921 -32.63677 37315 ft 524 kts 85°
2026-05-07 12:05 55.57710 -32.52960 37314 ft 524 kts 86°
2026-05-07 12:05 55.57443 -32.40075 37321 ft 524 kts 86°
2026-05-07 12:06 55.57164 -32.27193 37314 ft 524 kts 86°
2026-05-07 12:06 55.56871 -32.14309 37314 ft 524 kts 86°
2026-05-07 12:07 55.56565 -32.01423 37312 ft 524 kts 86°
2026-05-07 12:07 55.56246 -31.88573 37314 ft 524 kts 86°
2026-05-07 12:08 55.55914 -31.75791 37314 ft 524 kts 86°
2026-05-07 12:08 55.55568 -31.62933 37313 ft 524 kts 86°
2026-05-07 12:09 55.55207 -31.50068 37318 ft 523 kts 86°
2026-05-07 12:09 55.54834 -31.37222 37314 ft 523 kts 86°
2026-05-07 12:10 55.54447 -31.24361 37308 ft 523 kts 87°
2026-05-07 12:10 55.54050 -31.11619 37302 ft 523 kts 87°
2026-05-07 12:11 55.53636 -30.98758 37298 ft 523 kts 87°
2026-05-07 12:11 55.53210 -30.85951 37304 ft 523 kts 87°
2026-05-07 12:12 55.52770 -30.73139 37299 ft 522 kts 88°
2026-05-07 12:12 55.52321 -30.60419 37295 ft 522 kts 88°
2026-05-07 12:13 55.51855 -30.47620 37295 ft 522 kts 88°
2026-05-07 12:13 55.51381 -30.34850 37294 ft 522 kts 88°
2026-05-07 12:14 55.50900 -30.22061 37292 ft 521 kts 88°
2026-05-07 12:14 55.50411 -30.09365 37290 ft 521 kts 88°
2026-05-07 12:15 55.49910 -29.96625 37281 ft 520 kts 88°
2026-05-07 12:15 55.49725 -29.83903 37283 ft 517 kts 84°
2026-05-07 12:16 55.49663 -29.71202 37279 ft 517 kts 85°
2026-05-07 12:16 55.49547 -29.58505 37274 ft 518 kts 85°
2026-05-07 12:17 55.49400 -29.45796 37278 ft 518 kts 86°
2026-05-07 12:17 55.49233 -29.33145 37274 ft 518 kts 86°
2026-05-07 12:18 55.49047 -29.20418 37273 ft 518 kts 86°
2026-05-07 12:18 55.48846 -29.07715 37267 ft 518 kts 86°
2026-05-07 12:19 55.48633 -28.95075 37268 ft 518 kts 86°
2026-05-07 12:19 55.48406 -28.82345 37267 ft 518 kts 87°
2026-05-07 12:20 55.48166 -28.69667 37263 ft 518 kts 87°
2026-05-07 12:20 55.47913 -28.56941 37263 ft 519 kts 87°
2026-05-07 12:21 55.47646 -28.44244 37260 ft 519 kts 87°
2026-05-07 12:21 55.47368 -28.31593 37257 ft 519 kts 88°
2026-05-07 12:22 55.47075 -28.18889 37258 ft 519 kts 88°
2026-05-07 12:22 55.46769 -28.06172 37255 ft 519 kts 88°
2026-05-07 12:23 55.46449 -27.93466 37251 ft 519 kts 88°
2026-05-07 12:23 55.46118 -27.80804 37248 ft 519 kts 88°
2026-05-07 12:24 55.45771 -27.68067 37249 ft 519 kts 89°
2026-05-07 12:24 55.45412 -27.55338 37244 ft 519 kts 89°
2026-05-07 12:25 55.45042 -27.42707 37236 ft 519 kts 89°
2026-05-07 12:25 55.44655 -27.29956 37235 ft 520 kts 89°
2026-05-07 12:26 55.44257 -27.17257 37227 ft 520 kts 89°
2026-05-07 12:26 55.43844 -27.04543 37226 ft 520 kts 89°
2026-05-07 12:27 55.43418 -26.91816 37231 ft 520 kts 90°
2026-05-07 12:27 55.42983 -26.79179 37228 ft 520 kts 90°
2026-05-07 12:28 55.42530 -26.66450 37229 ft 520 kts 90°
2026-05-07 12:28 55.42064 -26.53715 37225 ft 520 kts 90°
2026-05-07 12:29 55.41589 -26.41078 37222 ft 520 kts 90°
2026-05-07 12:29 55.41097 -26.28367 37221 ft 521 kts 90°
2026-05-07 12:30 55.40591 -26.15629 37215 ft 521 kts 91°
2026-05-07 12:30 55.40073 -26.02917 37212 ft 521 kts 91°
2026-05-07 12:31 55.39544 -25.90285 37210 ft 521 kts 91°
2026-05-07 12:31 55.38998 -25.77546 37206 ft 521 kts 91°
2026-05-07 12:32 55.38441 -25.64849 37205 ft 521 kts 91°
2026-05-07 12:32 55.37869 -25.52140 37200 ft 521 kts 91°
2026-05-07 12:33 55.36991 -25.33164 37196 ft 521 kts 92°
2026-05-07 12:33 55.36387 -25.20468 37192 ft 521 kts 92°
2026-05-07 12:34 55.35769 -25.07765 37194 ft 521 kts 92°
2026-05-07 12:34 55.35142 -24.95149 37189 ft 521 kts 92°
2026-05-07 12:35 55.34499 -24.82463 37188 ft 521 kts 92°
2026-05-07 12:35 55.33841 -24.69767 37182 ft 521 kts 92°
2026-05-07 12:36 55.33170 -24.57066 37182 ft 521 kts 93°
2026-05-07 12:36 55.32491 -24.44469 37175 ft 521 kts 93°
2026-05-07 12:37 55.31794 -24.31787 37176 ft 521 kts 93°
2026-05-07 12:37 55.31085 -24.19128 37169 ft 521 kts 94°
2026-05-07 12:38 55.30363 -24.06461 37169 ft 521 kts 94°
2026-05-07 12:38 55.29628 -23.93820 37165 ft 521 kts 94°
2026-05-07 12:39 55.28879 -23.81155 37158 ft 521 kts 94°
2026-05-07 12:39 55.28122 -23.68580 37161 ft 521 kts 94°
2026-05-07 12:40 55.27346 -23.55927 37142 ft 521 kts 94°
2026-05-07 12:40 55.26558 -23.43282 37150 ft 521 kts 95°
2026-05-07 12:41 55.25758 -23.30653 37138 ft 521 kts 95°
2026-05-07 12:41 55.24944 -23.18019 37140 ft 521 kts 95°
2026-05-07 12:42 55.24121 -23.05464 37136 ft 521 kts 95°
2026-05-07 12:42 55.23281 -22.92842 37136 ft 521 kts 95°
2026-05-07 12:43 55.22427 -22.80204 37138 ft 521 kts 95°
2026-05-07 12:43 55.21559 -22.67576 37136 ft 521 kts 96°
2026-05-07 12:44 55.20680 -22.54966 37132 ft 521 kts 96°
2026-05-07 12:44 55.19792 -22.42429 37129 ft 521 kts 96°
2026-05-07 12:45 55.18884 -22.29800 37132 ft 521 kts 96°
2026-05-07 12:45 55.17967 -22.17217 37119 ft 521 kts 96°
2026-05-07 12:46 55.17042 -22.04721 37122 ft 521 kts 96°
2026-05-07 12:46 55.16098 -21.92145 37111 ft 521 kts 97°
2026-05-07 12:47 55.15142 -21.79572 37109 ft 521 kts 97°
2026-05-07 12:47 55.14172 -21.67004 37105 ft 521 kts 97°
2026-05-07 12:48 55.13195 -21.54528 37108 ft 521 kts 97°
2026-05-07 12:48 55.12201 -21.41991 37105 ft 521 kts 97°
2026-05-07 12:49 55.11193 -21.29450 37098 ft 521 kts 97°
2026-05-07 12:49 55.10171 -21.16901 37095 ft 521 kts 98°
2026-05-07 12:50 55.09135 -21.04346 37091 ft 522 kts 98°
2026-05-07 12:50 55.08093 -20.91880 37088 ft 522 kts 98°
2026-05-07 12:51 55.07030 -20.79319 37093 ft 522 kts 98°
2026-05-07 12:51 55.05955 -20.66780 37086 ft 522 kts 98°
2026-05-07 12:52 55.04869 -20.54264 37080 ft 522 kts 98°
2026-05-07 12:52 55.03955 -20.43854 37076 ft 522 kts 98°
2026-05-07 12:53 55.02670 -20.29300 37074 ft 522 kts 99°
2026-05-07 12:53 55.01743 -20.18872 37069 ft 522 kts 99°
2026-05-07 12:54 55.00621 -20.06385 37071 ft 522 kts 99°
2026-05-07 12:54 54.99645 -19.93835 37068 ft 522 kts 91°
2026-05-07 12:55 55.00085 -19.81214 37066 ft 522 kts 85°
2026-05-07 12:55 55.00563 -19.68591 37062 ft 522 kts 87°
2026-05-07 12:56 55.00833 -19.56003 37060 ft 522 kts 88°
2026-05-07 12:56 55.01039 -19.43366 37051 ft 523 kts 88°
2026-05-07 12:57 55.01231 -19.30678 37048 ft 523 kts 88°
2026-05-07 12:57 55.01412 -19.17975 37043 ft 523 kts 89°
2026-05-07 12:58 55.01579 -19.05371 37049 ft 523 kts 89°
2026-05-07 12:58 55.01734 -18.92707 37039 ft 523 kts 89°
2026-05-07 12:59 55.01876 -18.80004 37031 ft 523 kts 89°
2026-05-07 12:59 55.02005 -18.67302 37026 ft 523 kts 89°
2026-05-07 13:00 55.02119 -18.54713 37024 ft 523 kts 89°
2026-05-07 13:00 55.02222 -18.42016 37021 ft 523 kts 89°
2026-05-07 13:01 55.02311 -18.29290 37013 ft 524 kts 90°
2026-05-07 13:01 55.02387 -18.16593 37017 ft 524 kts 90°
2026-05-07 13:02 55.02449 -18.03898 37011 ft 524 kts 90°
2026-05-07 13:02 55.02499 -17.91286 37012 ft 524 kts 90°
2026-05-07 13:03 55.02535 -17.78578 37004 ft 524 kts 90°
2026-05-07 13:03 55.02558 -17.65868 36999 ft 524 kts 90°
2026-05-07 13:04 55.02568 -17.53181 37005 ft 524 kts 91°
2026-05-07 13:04 55.02565 -17.40476 36992 ft 524 kts 91°
2026-05-07 13:05 55.02548 -17.27832 36994 ft 524 kts 91°
2026-05-07 13:05 55.02519 -17.15135 36988 ft 523 kts 91°
2026-05-07 13:06 55.02476 -17.02453 36988 ft 523 kts 91°
2026-05-07 13:06 55.02420 -16.89777 36972 ft 523 kts 91°
2026-05-07 13:07 55.02351 -16.77176 36973 ft 522 kts 91°
2026-05-07 13:07 55.02269 -16.64508 36970 ft 522 kts 92°
2026-05-07 13:08 55.02174 -16.51872 36973 ft 522 kts 92°
2026-05-07 13:08 55.02065 -16.39217 36963 ft 522 kts 92°
2026-05-07 13:09 55.01944 -16.26552 36960 ft 522 kts 92°
2026-05-07 13:09 55.01810 -16.13985 36953 ft 522 kts 92°
2026-05-07 13:10 55.01662 -16.01327 36953 ft 521 kts 92°
2026-05-07 13:10 55.01502 -15.88700 36946 ft 521 kts 93°
2026-05-07 13:11 55.01328 -15.76040 36958 ft 521 kts 93°
2026-05-07 13:11 55.01141 -15.63406 36932 ft 521 kts 93°
2026-05-07 13:12 55.00941 -15.50776 36933 ft 521 kts 93°
2026-05-07 13:12 55.00728 -15.38131 36925 ft 521 kts 94°
2026-05-07 13:13 55.00503 -15.25588 36933 ft 521 kts 94°
2026-05-07 13:13 55.00267 -15.12963 36933 ft 520 kts 94°
2026-05-07 13:14 55.00025 -15.00341 36929 ft 520 kts 94°
2026-05-07 13:14 54.99975 -14.87816 36929 ft 521 kts 91°
2026-05-07 13:15 55.00063 -14.75193 36925 ft 521 kts 91°
2026-05-07 13:15 55.00101 -14.62549 36921 ft 520 kts 92°
2026-05-07 13:16 55.00109 -14.49945 36915 ft 520 kts 92°
2026-05-07 13:16 55.00102 -14.37342 36915 ft 520 kts 92°
2026-05-07 13:17 55.00082 -14.24804 36912 ft 520 kts 92°
2026-05-07 13:17 55.00050 -14.12227 36909 ft 520 kts 92°
2026-05-07 13:18 54.99743 -13.99711 36907 ft 516 kts 100°
2026-05-07 13:18 54.98335 -13.87502 36910 ft 513 kts 107°
2026-05-07 13:19 54.96700 -13.75406 36909 ft 513 kts 106°
2026-05-07 13:19 54.95089 -13.63339 36911 ft 512 kts 106°
2026-05-07 13:20 54.93465 -13.51265 36905 ft 512 kts 106°
2026-05-07 13:20 54.91827 -13.39232 36908 ft 511 kts 107°
2026-05-07 13:21 54.90181 -13.27274 36910 ft 510 kts 107°
2026-05-07 13:21 54.88515 -13.15288 36911 ft 510 kts 107°
2026-05-07 13:22 54.86842 -13.03346 36908 ft 509 kts 107°
2026-05-07 13:22 54.85155 -12.91389 36914 ft 508 kts 107°
2026-05-07 13:23 54.83466 -12.79516 36910 ft 507 kts 107°
2026-05-07 13:23 54.81775 -12.67719 36906 ft 506 kts 107°
2026-05-07 13:24 54.80065 -12.55883 36905 ft 505 kts 108°
2026-05-07 13:24 54.78346 -12.44069 36902 ft 505 kts 108°
2026-05-07 13:25 54.76618 -12.32281 36897 ft 504 kts 108°
2026-05-07 13:25 54.74891 -12.20593 36892 ft 503 kts 108°
2026-05-07 13:26 54.73146 -12.08862 36886 ft 503 kts 108°
2026-05-07 13:26 54.71389 -11.97140 36884 ft 503 kts 108°
2026-05-07 13:27 54.69621 -11.85433 36892 ft 502 kts 108°
2026-05-07 13:27 54.67856 -11.73824 36894 ft 502 kts 108°
2026-05-07 13:28 54.66067 -11.62150 36892 ft 502 kts 108°
2026-05-07 13:28 54.64269 -11.50490 36886 ft 502 kts 109°
2026-05-07 13:29 54.62457 -11.38832 36883 ft 502 kts 109°
2026-05-07 13:29 54.60636 -11.27192 36886 ft 502 kts 109°
2026-05-07 13:30 54.58816 -11.15639 36888 ft 502 kts 109°
2026-05-07 13:30 54.56969 -11.04003 36888 ft 502 kts 109°
2026-05-07 13:31 54.55128 -10.92479 36889 ft 502 kts 109°
2026-05-07 13:31 54.53261 -10.80867 36888 ft 502 kts 109°
2026-05-07 13:32 54.51382 -10.69271 36897 ft 502 kts 109°
2026-05-07 13:32 54.49504 -10.57753 36898 ft 502 kts 109°
2026-05-07 13:33 54.47602 -10.46168 36901 ft 502 kts 109°
2026-05-07 13:33 54.45705 -10.34691 36907 ft 502 kts 109°
2026-05-07 13:34 54.42820 -10.17378 36908 ft 502 kts 109°
2026-05-07 13:35 54.40882 -10.05846 36910 ft 501 kts 109°
2026-05-07 13:35 54.38946 -9.94400 36914 ft 501 kts 109°
2026-05-07 13:36 54.36994 -9.82936 36910 ft 500 kts 110°
2026-05-07 13:36 54.35030 -9.71476 36913 ft 500 kts 110°
2026-05-07 13:37 54.33057 -9.60034 36911 ft 499 kts 110°
2026-05-07 13:37 54.31082 -9.48656 36911 ft 499 kts 110°
2026-05-07 13:38 54.29097 -9.37295 36913 ft 498 kts 110°
2026-05-07 13:38 54.27102 -9.25949 36909 ft 497 kts 110°
2026-05-07 13:39 54.25111 -9.14696 36920 ft 496 kts 110°
2026-05-07 13:39 54.23102 -9.03406 36922 ft 495 kts 110°
2026-05-07 13:40 54.21086 -8.92155 36934 ft 495 kts 110°
2026-05-07 13:40 54.19064 -8.80934 36939 ft 494 kts 110°
2026-05-07 13:41 54.17035 -8.69745 36939 ft 493 kts 110°
2026-05-07 13:41 54.15010 -8.58649 36939 ft 492 kts 110°
2026-05-07 13:42 54.12969 -8.47522 36933 ft 491 kts 110°
2026-05-07 13:42 54.11265 -8.38290 36929 ft 490 kts 111°
2026-05-07 13:43 54.08870 -8.25386 36906 ft 489 kts 111°
2026-05-07 13:43 54.07153 -8.16195 36905 ft 489 kts 111°
2026-05-07 13:44 54.05083 -8.05167 36895 ft 488 kts 111°
2026-05-07 13:44 54.03006 -7.94171 36889 ft 488 kts 111°
2026-05-07 13:45 54.00921 -7.83194 36887 ft 487 kts 111°
2026-05-07 13:45 53.98840 -7.72308 36885 ft 487 kts 111°
2026-05-07 13:46 53.96742 -7.61386 36890 ft 486 kts 111°
2026-05-07 13:46 53.94630 -7.50460 36904 ft 486 kts 111°
2026-05-07 13:47 53.92514 -7.39568 36906 ft 485 kts 111°
2026-05-07 13:47 53.90389 -7.28697 36911 ft 485 kts 111°
2026-05-07 13:48 53.88266 -7.17899 36910 ft 485 kts 111°
2026-05-07 13:48 53.86123 -7.07055 36910 ft 484 kts 111°
2026-05-07 13:49 53.83980 -6.96274 36919 ft 484 kts 111°
2026-05-07 13:49 53.81818 -6.85459 36921 ft 484 kts 111°
2026-05-07 13:50 53.79652 -6.74678 36925 ft 483 kts 111°
2026-05-07 13:50 53.77478 -6.63922 36932 ft 483 kts 111°
2026-05-07 13:51 53.75309 -6.53243 36930 ft 483 kts 111°
2026-05-07 13:51 53.73122 -6.42538 36938 ft 483 kts 112°
2026-05-07 13:52 53.70920 -6.31814 36940 ft 483 kts 112°
2026-05-07 13:52 53.68706 -6.21092 36942 ft 482 kts 112°
2026-05-07 13:53 53.66501 -6.10472 36943 ft 482 kts 112°
2026-05-07 13:53 53.64277 -5.99814 36944 ft 482 kts 112°
2026-05-07 13:54 53.62043 -5.89167 36947 ft 481 kts 112°
2026-05-07 13:54 53.59799 -5.78514 36956 ft 481 kts 112°
2026-05-07 13:55 53.57569 -5.67954 36956 ft 481 kts 112°
2026-05-07 13:55 53.55325 -5.57378 36967 ft 480 kts 112°
2026-05-07 13:56 53.53687 -5.46466 36971 ft 485 kts 98°
2026-05-07 13:56 53.53347 -5.35113 36972 ft 486 kts 95°
2026-05-07 13:57 53.53079 -5.23832 36969 ft 486 kts 95°
2026-05-07 13:57 53.52782 -5.12478 36985 ft 485 kts 95°
2026-05-07 13:58 53.52425 -5.01145 36974 ft 485 kts 95°
2026-05-07 13:58 53.52054 -4.89872 36982 ft 485 kts 95°
2026-05-07 13:59 53.51681 -4.78626 36981 ft 485 kts 95°
2026-05-07 13:59 53.51302 -4.67375 36984 ft 484 kts 95°
2026-05-07 14:00 53.50910 -4.56057 36992 ft 484 kts 95°
2026-05-07 14:00 53.50508 -4.44763 36987 ft 484 kts 96°
2026-05-07 14:01 53.50097 -4.33523 36988 ft 484 kts 96°
2026-05-07 14:01 53.49673 -4.22228 37003 ft 484 kts 96°
2026-05-07 14:02 53.49238 -4.10932 37010 ft 484 kts 96°
2026-05-07 14:02 53.48675 -3.99739 37006 ft 482 kts 101°
2026-05-07 14:03 53.47232 -3.89254 37003 ft 480 kts 110°
2026-05-07 14:03 53.45033 -3.78678 36973 ft 479 kts 111°
2026-05-07 14:04 53.42851 -3.68119 36986 ft 479 kts 111°
2026-05-07 14:04 53.40460 -3.57693 37001 ft 478 kts 117°
2026-05-07 14:05 53.37553 -3.47672 36999 ft 478 kts 117°
2026-05-07 14:05 53.34741 -3.37910 37015 ft 478 kts 117°
2026-05-07 14:06 53.31900 -3.28094 37012 ft 478 kts 117°
2026-05-07 14:06 53.28992 -3.18088 37015 ft 478 kts 117°
2026-05-07 14:07 53.26071 -3.08085 37017 ft 478 kts 117°
2026-05-07 14:07 53.23162 -2.98163 37022 ft 478 kts 117°
2026-05-07 14:08 53.20228 -2.88203 37020 ft 478 kts 117°
2026-05-07 14:08 53.17305 -2.78319 37021 ft 478 kts 118°
2026-05-07 14:09 53.14480 -2.68802 37023 ft 478 kts 118°
2026-05-07 14:09 53.11608 -2.59168 37024 ft 478 kts 118°
2026-05-07 14:10 53.08643 -2.49264 37026 ft 478 kts 118°
2026-05-07 14:10 53.05659 -2.39375 37023 ft 478 kts 120°
2026-05-07 14:11 53.01753 -2.30508 37016 ft 476 kts 135°
2026-05-07 14:11 52.96612 -2.23684 37018 ft 474 kts 149°
2026-05-07 14:11 52.93819 -2.20804 36804 ft 471 kts 148°
2026-05-07 14:12 52.91056 -2.17916 36169 ft 470 kts 148°
2026-05-07 14:12 52.88316 -2.15043 35422 ft 470 kts 147°
2026-05-07 14:12 52.85541 -2.12136 34594 ft 471 kts 147°
2026-05-07 14:12 52.82769 -2.09242 33660 ft 471 kts 147°
2026-05-07 14:13 52.79998 -2.06355 32683 ft 471 kts 147°
2026-05-07 14:13 52.77231 -2.03479 32064 ft 464 kts 147°
2026-05-07 14:13 52.74519 -2.00664 31723 ft 452 kts 147°
2026-05-07 14:13 52.71892 -1.97942 31274 ft 444 kts 147°
2026-05-07 14:14 52.69315 -1.95276 30713 ft 440 kts 147°
2026-05-07 14:14 52.66736 -1.92611 30161 ft 436 kts 148°
2026-05-07 14:14 52.64175 -1.89969 29557 ft 431 kts 148°
2026-05-07 14:14 52.61646 -1.87363 29023 ft 425 kts 148°
2026-05-07 14:15 52.59153 -1.84796 28466 ft 420 kts 148°
2026-05-07 14:15 52.56687 -1.82261 27958 ft 415 kts 148°
2026-05-07 14:15 52.54245 -1.79757 27404 ft 411 kts 148°
2026-05-07 14:15 52.51832 -1.77285 26879 ft 407 kts 148°
2026-05-07 14:16 52.49471 -1.74867 26362 ft 403 kts 149°
2026-05-07 14:16 52.47104 -1.72447 25846 ft 400 kts 149°
2026-05-07 14:16 52.44749 -1.70043 25320 ft 397 kts 149°
2026-05-07 14:16 52.42400 -1.67649 24801 ft 394 kts 149°
2026-05-07 14:17 52.40076 -1.65283 24280 ft 392 kts 149°
2026-05-07 14:17 52.37759 -1.62926 23758 ft 391 kts 150°
2026-05-07 14:17 52.35488 -1.60620 23185 ft 389 kts 150°
2026-05-07 14:17 52.33206 -1.58304 22674 ft 385 kts 150°
2026-05-07 14:18 52.30962 -1.56030 22195 ft 381 kts 150°
2026-05-07 14:18 52.28716 -1.53758 21667 ft 378 kts 150°
2026-05-07 14:18 52.26486 -1.51504 21154 ft 375 kts 150°
2026-05-07 14:18 52.24275 -1.49273 20655 ft 372 kts 150°
2026-05-07 14:19 52.22085 -1.47040 20152 ft 371 kts 148°
2026-05-07 14:19 52.20053 -1.44452 19764 ft 374 kts 141°
2026-05-07 14:19 52.18069 -1.41630 19370 ft 378 kts 141°
2026-05-07 14:19 52.16080 -1.38834 18994 ft 377 kts 141°
2026-05-07 14:20 52.14095 -1.36062 18600 ft 374 kts 141°
2026-05-07 14:20 52.12155 -1.33360 18207 ft 371 kts 141°
2026-05-07 14:20 52.10198 -1.30636 17820 ft 368 kts 141°
2026-05-07 14:20 52.08250 -1.27928 17423 ft 366 kts 141°
2026-05-07 14:21 52.06316 -1.25243 17066 ft 363 kts 141°
2026-05-07 14:21 52.04393 -1.22576 16690 ft 361 kts 141°
2026-05-07 14:21 52.02519 -1.19980 16483 ft 354 kts 141°
2026-05-07 14:21 52.00675 -1.17425 16346 ft 341 kts 141°
2026-05-07 14:22 51.98927 -1.15007 16232 ft 329 kts 141°
2026-05-07 14:22 51.97211 -1.12636 16120 ft 317 kts 141°
2026-05-07 14:22 51.95560 -1.10359 16022 ft 306 kts 141°
2026-05-07 14:22 51.93966 -1.08161 15908 ft 296 kts 141°
2026-05-07 14:23 51.92430 -1.06044 15754 ft 282 kts 141°
2026-05-07 14:23 51.90962 -1.04024 15461 ft 274 kts 141°
2026-05-07 14:23 51.89523 -1.02049 14983 ft 274 kts 141°
2026-05-07 14:23 51.88072 -1.00058 14557 ft 271 kts 141°
2026-05-07 14:24 51.86637 -0.98090 14132 ft 269 kts 141°
2026-05-07 14:24 51.85353 -0.95972 13678 ft 268 kts 128°
2026-05-07 14:24 51.84373 -0.93349 13186 ft 268 kts 116°
2026-05-07 14:24 51.83584 -0.90631 12693 ft 266 kts 117°
2026-05-07 14:25 51.82774 -0.87951 12231 ft 264 kts 118°
2026-05-07 14:25 51.81958 -0.85295 11774 ft 263 kts 118°
2026-05-07 14:25 51.81147 -0.82658 11309 ft 261 kts 118°
2026-05-07 14:25 51.80341 -0.80040 10839 ft 259 kts 118°
2026-05-07 14:26 51.79540 -0.77430 10408 ft 258 kts 118°
2026-05-07 14:26 51.78745 -0.74843 9974 ft 256 kts 118°
2026-05-07 14:26 51.77965 -0.72305 9491 ft 255 kts 118°
2026-05-07 14:26 51.77179 -0.69748 9034 ft 254 kts 118°
2026-05-07 14:27 51.76395 -0.67202 8572 ft 253 kts 118°
2026-05-07 14:27 51.75613 -0.64664 8132 ft 251 kts 118°
2026-05-07 14:27 51.74885 -0.62310 7697 ft 250 kts 118°
2026-05-07 14:27 51.74002 -0.59919 7433 ft 250 kts 135°
2026-05-07 14:28 51.72558 -0.58407 7108 ft 248 kts 165°
2026-05-07 14:28 51.70876 -0.58294 6907 ft 240 kts 195°
2026-05-07 14:28 51.69478 -0.59529 6850 ft 230 kts 226°
2026-05-07 14:28 51.68451 -0.61449 6765 ft 221 kts 230°
2026-05-07 14:29 51.67485 -0.63302 6702 ft 212 kts 229°
2026-05-07 14:29 51.66521 -0.65054 6630 ft 205 kts 227°
2026-05-07 14:29 51.65582 -0.66688 6591 ft 194 kts 226°
2026-05-07 14:29 51.64687 -0.68200 6457 ft 177 kts 226°
2026-05-07 14:30 51.64111 -0.69164 6107 ft 177 kts 226°
2026-05-07 14:30 51.63269 -0.70567 5595 ft 178 kts 226°
2026-05-07 14:30 51.62407 -0.71990 5327 ft 176 kts 226°
2026-05-07 14:30 51.61552 -0.73399 5191 ft 176 kts 226°
2026-05-07 14:31 51.60682 -0.74818 5091 ft 178 kts 220°
2026-05-07 14:31 51.59563 -0.75555 4936 ft 178 kts 187°
2026-05-07 14:31 51.58362 -0.76040 4861 ft 177 kts 216°
2026-05-07 14:31 51.57542 -0.77486 4790 ft 176 kts 242°
2026-05-07 14:32 51.57293 -0.79386 4707 ft 177 kts 276°
2026-05-07 14:32 51.57587 -0.81293 4648 ft 178 kts 287°
2026-05-07 14:32 51.57978 -0.83176 4572 ft 176 kts 284°
2026-05-07 14:32 51.57929 -0.85113 4452 ft 176 kts 248°
2026-05-07 14:33 51.57222 -0.86695 4261 ft 177 kts 219°
2026-05-07 14:33 51.56110 -0.87510 4106 ft 178 kts 192°
2026-05-07 14:33 51.54890 -0.87891 4030 ft 178 kts 191°
2026-05-07 14:33 51.53674 -0.88263 3938 ft 177 kts 192°
2026-05-07 14:34 51.52466 -0.88635 3878 ft 178 kts 191°
2026-05-07 14:34 51.51237 -0.88927 3779 ft 179 kts 176°
2026-05-07 14:34 51.50093 -0.88269 3718 ft 180 kts 151°
2026-05-07 14:34 51.48991 -0.87240 3644 ft 180 kts 151°
2026-05-07 14:35 51.47927 -0.86240 3560 ft 178 kts 150°
2026-05-07 14:35 51.46849 -0.85225 3482 ft 178 kts 150°
2026-05-07 14:35 51.45981 -0.83833 3397 ft 182 kts 113°
2026-05-07 14:35 51.45880 -0.81828 3337 ft 185 kts 74°
2026-05-07 14:36 51.46335 -0.79888 3279 ft 186 kts 66°
2026-05-07 14:36 51.46851 -0.78006 3214 ft 181 kts 66°
2026-05-07 14:36 51.47336 -0.76172 3133 ft 177 kts 69°
2026-05-07 14:36 51.47614 -0.74263 3039 ft 176 kts 85°
2026-05-07 14:37 51.47629 -0.72330 2977 ft 176 kts 91°
2026-05-07 14:37 51.47701 -0.68417 2570 ft 174 kts 89°
2026-05-07 14:37 51.47706 -0.66473 2343 ft 171 kts 90°
2026-05-07 14:38 51.47714 -0.64632 2111 ft 156 kts 90°
2026-05-07 14:38 51.47715 -0.62947 1904 ft 147 kts 90°
2026-05-07 14:38 51.47716 -0.61326 1712 ft 146 kts 90°
2026-05-07 14:38 51.47713 -0.59687 1467 ft 145 kts 91°
2026-05-07 14:39 51.47709 -0.58272 1301 ft 144 kts 91°
2026-05-07 14:39 51.47703 -0.56683 1146 ft 144 kts 90°
2026-05-07 14:39 51.47713 -0.55076 1005 ft 144 kts 89°
2026-05-07 14:39 51.47722 -0.53478 753 ft 141 kts 90°
2026-05-07 14:40 51.47726 -0.51912 543 ft 140 kts 89°
2026-05-07 14:40 51.47739 -0.50358 363 ft 139 kts 89°
2026-05-07 14:40 51.47747 -0.48806 166 ft 138 kts 90°
2026-05-07 14:40 51.47754 -0.47340 91 ft 120 kts 89°
2026-05-07 14:41 51.47757 -0.46304 96 ft 55 kts 89°
2026-05-07 14:41 51.47759 -0.45814 92 ft 36 kts 90°
2026-05-07 14:41 51.47758 -0.45461 94 ft 27 kts 89°
2026-05-07 14:41 51.47755 -0.45251 96 ft 15 kts 110°
2026-05-07 14:42 51.47677 -0.45177 94 ft 15 kts 179°
2026-05-07 14:42 51.47572 -0.45177 92 ft 12 kts 180°
2026-05-07 14:42 51.47514 -0.45235 95 ft 12 kts 253°
2026-05-07 14:42 51.47507 -0.45390 95 ft 16 kts 272°
2026-05-07 14:43 51.47508 -0.45531 95 ft 13 kts 269°
2026-05-07 14:43 51.47507 -0.45682 95 ft 12 kts 273°
2026-05-07 14:43 51.47516 -0.45798 93 ft 12 kts 276°
2026-05-07 14:43 51.47517 -0.45944 92 ft 15 kts 269°
2026-05-07 14:44 51.47517 -0.46070 92 ft 13 kts 269°
2026-05-07 14:44 51.47516 -0.46181 92 ft 12 kts 269°
2026-05-07 14:44 51.47515 -0.46336 94 ft 16 kts 269°
2026-05-07 14:44 51.47515 -0.46504 92 ft 16 kts 270°
2026-05-07 14:45 51.47515 -0.46661 92 ft 12 kts 268°
2026-05-07 14:45 51.47510 -0.46714 94 ft 2 kts 254°
2026-05-07 14:45 51.47507 -0.46730 95 ft 2 kts 254°
2026-05-07 14:45 51.47506 -0.46737 95 ft 2 kts 255°
2026-05-07 14:46 51.47498 -0.46804 94 ft 10 kts 263°
2026-05-07 14:46 51.47493 -0.46940 93 ft 13 kts 269°
2026-05-07 14:46 51.47492 -0.47088 92 ft 14 kts 269°
2026-05-07 14:46 51.47491 -0.47227 92 ft 9 kts 269°
2026-05-07 14:47 51.47490 -0.47303 93 ft 9 kts 260°
2026-05-07 14:47 51.47455 -0.47356 95 ft 7 kts 195°
2026-05-07 14:47 51.47395 -0.47358 92 ft 10 kts 179°
2026-05-07 14:47 51.47321 -0.47357 92 ft 9 kts 180°
2026-05-07 14:48 51.47252 -0.47357 92 ft 11 kts 180°
2026-05-07 14:48 51.47199 -0.47357 92 ft 0 kts 180°
2026-05-07 14:48 51.47197 -0.47357 92 ft 0 kts 180°
2026-05-07 14:49 51.47193 -0.47357 92 ft 0 kts 180°
2026-05-07 14:49 51.47177 -0.47358 93 ft 5 kts 192°
2026-05-07 14:50 51.47152 -0.47394 95 ft 7 kts 246°
2026-05-07 14:50 51.47144 -0.47452 94 ft 2 kts 267°
2026-05-07 14:50 51.47144 -0.47480 94 ft 2 kts 269°
2026-05-07 14:50 51.47144 -0.47491 94 ft 1 kts 269°
2026-05-07 14:51 51.47144 -0.47493 94 ft 0 kts 269°